Wetterdaten: Donnerstag, 05.10.2017
Datum Zeit Temp. Aussen Temp. o. S. +5cm Feuchte Auss BlattFeu 1 Luftdruck Regen Sonnenschein Regendauer Solar Windben Empfang
05.10.2017 00:00 13,0 C 12,8 C 11,7 C 81 % 0 lf 1017,1 hPa 0,0 l/m 0 min 0 min 0 W/m 31,4 km/h (5 Bft) 100,00 %
05.10.2017 00:02 13,1 C 12,8 C 11,7 C 81 % 0 lf 1016,9 hPa 0,0 l/m 0 min 0 min 0 W/m 31,4 km/h (5 Bft) 93,02 %
05.10.2017 00:04 13,1 C 12,8 C 11,7 C 81 % 0 lf 1017,0 hPa 0,0 l/m 0 min 0 min 0 W/m 18,8 km/h (3 Bft) 100,00 %
05.10.2017 00:08 13,0 C 12,8 C 11,7 C 81 % 0 lf 1017,0 hPa 0,0 l/m 0 min 0 min 0 W/m 33,5 km/h (5 Bft) 97,59 %
05.10.2017 00:10 13,0 C 12,8 C 11,7 C 81 % 0 lf 1016,9 hPa 0,0 l/m 0 min 0 min 0 W/m 29,3 km/h (5 Bft) 97,87 %
05.10.2017 00:12 13,0 C 12,8 C 11,7 C 81 % 0 lf 1016,9 hPa 0,0 l/m 0 min 0 min 0 W/m 33,5 km/h (5 Bft) 95,74 %
05.10.2017 00:14 13,0 C 12,8 C 11,7 C 81 % 0 lf 1016,9 hPa 0,0 l/m 0 min 0 min 0 W/m 23,0 km/h (4 Bft) 95,74 %
05.10.2017 00:16 13,0 C 12,8 C 11,7 C 82 % 0 lf 1016,9 hPa 0,0 l/m 0 min 0 min 0 W/m 20,9 km/h (4 Bft) 97,87 %
05.10.2017 00:18 13,0 C 12,8 C 11,7 C 82 % 0 lf 1016,9 hPa 0,0 l/m 0 min 0 min 0 W/m 20,9 km/h (4 Bft) 95,74 %
05.10.2017 00:20 13,0 C 12,8 C 11,7 C 82 % 0 lf 1016,9 hPa 0,0 l/m 0 min 0 min 0 W/m 18,8 km/h (3 Bft) 94,92 %
05.10.2017 00:22 13,0 C 12,8 C 11,7 C 82 % 0 lf 1016,9 hPa 0,0 l/m 0 min 0 min 0 W/m 25,1 km/h (4 Bft) 97,14 %
05.10.2017 00:24 12,9 C 12,8 C 11,7 C 82 % 0 lf 1016,9 hPa 0,0 l/m 0 min 0 min 0 W/m 29,3 km/h (5 Bft) 95,74 %
05.10.2017 00:26 12,9 C 12,8 C 11,7 C 82 % 0 lf 1016,8 hPa 0,0 l/m 0 min 0 min 0 W/m 27,2 km/h (4 Bft) 95,74 %
05.10.2017 00:28 12,9 C 12,8 C 11,7 C 82 % 0 lf 1016,8 hPa 0,0 l/m 0 min 0 min 0 W/m 20,9 km/h (4 Bft) 93,62 %
05.10.2017 00:30 12,9 C 12,8 C 11,7 C 82 % 0 lf 1016,8 hPa 0,0 l/m 0 min 0 min 5 W/m 23,0 km/h (4 Bft) 93,62 %
05.10.2017 00:32 12,9 C 12,8 C 11,7 C 82 % 0 lf 1016,7 hPa 0,0 l/m 0 min 0 min 5 W/m 25,1 km/h (4 Bft) 95,74 %
05.10.2017 00:34 12,9 C 12,8 C 11,7 C 82 % 2 lf 1016,6 hPa 0,0 l/m 0 min 2 min 5 W/m 27,2 km/h (4 Bft) 97,83 %
05.10.2017 00:36 12,9 C 12,2 C 11,1 C 82 % 4 lf 1016,6 hPa 0,0 l/m 0 min 0 min 5 W/m 18,8 km/h (3 Bft) 95,74 %
05.10.2017 00:38 12,9 C 12,2 C 10,6 C 82 % 11 lf 1016,6 hPa 0,0 l/m 0 min 2 min 5 W/m 20,9 km/h (4 Bft) 95,83 %
05.10.2017 00:40 12,9 C 12,2 C 10,6 C 82 % 13 lf 1016,5 hPa 0,0 l/m 0 min 2 min 5 W/m 23,0 km/h (4 Bft) 95,74 %
05.10.2017 00:42 12,9 C 12,2 C 10,6 C 83 % 14 lf 1016,5 hPa 0,0 l/m 0 min 2 min 5 W/m 29,3 km/h (5 Bft) 95,74 %
05.10.2017 00:44 12,8 C 12,2 C 10,0 C 83 % 13 lf 1016,4 hPa 0,0 l/m 0 min 2 min 5 W/m 27,2 km/h (4 Bft) 95,74 %
05.10.2017 00:46 12,8 C 12,2 C 10,0 C 83 % 11 lf 1016,4 hPa 0,0 l/m 0 min 2 min 5 W/m 25,1 km/h (4 Bft) 91,49 %
05.10.2017 00:48 12,8 C 12,2 C 10,0 C 83 % 8 lf 1016,4 hPa 0,0 l/m 0 min 2 min 5 W/m 20,9 km/h (4 Bft) 95,65 %
05.10.2017 00:50 12,8 C 11,7 C 10,0 C 83 % 15 lf 1016,3 hPa 0,0 l/m 0 min 2 min 5 W/m 18,8 km/h (3 Bft) 96,61 %
05.10.2017 00:52 12,8 C 11,7 C 10,0 C 83 % 15 lf 1016,2 hPa 0,0 l/m 0 min 2 min 5 W/m 23,0 km/h (4 Bft) 100,00 %
05.10.2017 00:54 12,7 C 11,7 C 10,0 C 83 % 15 lf 1016,3 hPa 0,0 l/m 0 min 2 min 5 W/m 20,9 km/h (4 Bft) 97,87 %
05.10.2017 00:56 12,7 C 11,7 C 10,0 C 84 % 15 lf 1016,2 hPa 0,0 l/m 0 min 2 min 5 W/m 31,4 km/h (5 Bft) 97,87 %
05.10.2017 00:58 12,7 C 11,7 C 10,0 C 84 % 15 lf 1016,0 hPa 0,0 l/m 0 min 2 min 5 W/m 18,8 km/h (3 Bft) 100,00 %
05.10.2017 01:00 12,7 C 11,7 C 10,0 C 84 % 15 lf 1016,0 hPa 0,0 l/m 0 min 2 min 5 W/m 18,8 km/h (3 Bft) 100,00 %
05.10.2017 01:02 12,7 C 11,7 C 10,0 C 84 % 15 lf 1016,1 hPa 0,0 l/m 0 min 2 min 5 W/m 27,2 km/h (4 Bft) 100,00 %
05.10.2017 01:04 12,6 C 11,7 C 10,0 C 84 % 15 lf 1016,0 hPa 0,0 l/m 0 min 2 min 5 W/m 18,8 km/h (3 Bft) 97,87 %
05.10.2017 01:06 12,6 C 11,7 C 10,0 C 85 % 15 lf 1016,0 hPa 0,0 l/m 0 min 0 min 5 W/m 14,6 km/h (3 Bft) 100,00 %
05.10.2017 01:08 12,6 C 11,7 C 10,0 C 85 % 15 lf 1016,0 hPa 0,0 l/m 0 min 0 min 5 W/m 18,8 km/h (3 Bft) 100,00 %
05.10.2017 01:10 12,6 C 11,7 C 10,0 C 85 % 15 lf 1015,9 hPa 0,0 l/m 0 min 2 min 5 W/m 20,9 km/h (4 Bft) 100,00 %
05.10.2017 01:12 12,5 C 11,7 C 10,0 C 85 % 15 lf 1015,9 hPa 0,0 l/m 0 min 0 min 5 W/m 20,9 km/h (4 Bft) 100,00 %
05.10.2017 01:14 12,5 C 11,7 C 10,0 C 85 % 14 lf 1015,8 hPa 0,0 l/m 0 min 0 min 0 W/m 27,2 km/h (4 Bft) 100,00 %
05.10.2017 01:16 12,5 C 11,7 C 10,6 C 85 % 13 lf 1015,8 hPa 0,0 l/m 0 min 0 min 0 W/m 18,8 km/h (3 Bft) 97,87 %
05.10.2017 01:18 12,5 C 11,7 C 10,6 C 85 % 12 lf 1015,8 hPa 0,0 l/m 0 min 0 min 0 W/m 14,6 km/h (3 Bft) 100,00 %
05.10.2017 01:20 12,4 C 12,2 C 10,6 C 85 % 6 lf 1015,8 hPa 0,0 l/m 0 min 0 min 0 W/m 20,9 km/h (4 Bft) 100,00 %
05.10.2017 01:22 12,4 C 12,2 C 10,6 C 85 % 2 lf 1015,7 hPa 0,0 l/m 0 min 0 min 0 W/m 18,8 km/h (3 Bft) 100,00 %
05.10.2017 01:24 12,4 C 12,2 C 10,6 C 85 % 0 lf 1015,7 hPa 0,0 l/m 0 min 0 min 0 W/m 14,6 km/h (3 Bft) 95,74 %
05.10.2017 01:26 12,4 C 12,2 C 10,6 C 85 % 0 lf 1015,7 hPa 0,0 l/m 0 min 2 min 0 W/m 20,9 km/h (4 Bft) 95,74 %
05.10.2017 01:28 12,4 C 12,2 C 10,6 C 85 % 0 lf 1015,6 hPa 0,0 l/m 0 min 0 min 0 W/m 18,8 km/h (3 Bft) 95,74 %
05.10.2017 01:30 12,4 C 12,2 C 10,6 C 85 % 0 lf 1015,6 hPa 0,0 l/m 0 min 0 min 0 W/m 14,6 km/h (3 Bft) 100,00 %
05.10.2017 01:32 12,4 C 12,2 C 10,6 C 85 % 0 lf 1015,6 hPa 0,0 l/m 0 min 0 min 0 W/m 18,8 km/h (3 Bft) 100,00 %
05.10.2017 01:34 12,4 C 12,2 C 10,6 C 85 % 0 lf 1015,5 hPa 0,0 l/m 0 min 0 min 0 W/m 29,3 km/h (5 Bft) 100,00 %
05.10.2017 01:36 12,4 C 12,2 C 10,6 C 85 % 0 lf 1015,4 hPa 0,0 l/m 0 min 0 min 5 W/m 18,8 km/h (3 Bft) 97,92 %
05.10.2017 01:38 12,4 C 12,2 C 11,1 C 85 % 0 lf 1015,5 hPa 0,0 l/m 0 min 0 min 5 W/m 20,9 km/h (4 Bft) 97,92 %
05.10.2017 01:40 12,4 C 12,2 C 11,1 C 85 % 0 lf 1015,5 hPa 0,0 l/m 0 min 0 min 5 W/m 20,9 km/h (4 Bft) 97,92 %
05.10.2017 01:42 12,4 C 12,2 C 11,1 C 85 % 0 lf 1015,5 hPa 0,0 l/m 0 min 0 min 5 W/m 20,9 km/h (4 Bft) 93,62 %
05.10.2017 01:44 12,4 C 12,2 C 11,1 C 85 % 0 lf 1015,5 hPa 0,0 l/m 0 min 0 min 5 W/m 29,3 km/h (5 Bft) 93,48 %
05.10.2017 01:46 12,4 C 12,2 C 11,1 C 85 % 0 lf 1015,4 hPa 0,0 l/m 0 min 0 min 5 W/m 23,0 km/h (4 Bft) 97,92 %
05.10.2017 01:48 12,4 C 12,2 C 11,1 C 85 % 1 lf 1015,4 hPa 0,0 l/m 0 min 0 min 5 W/m 27,2 km/h (4 Bft) 100,00 %
05.10.2017 01:50 12,4 C 12,2 C 11,1 C 85 % 0 lf 1015,3 hPa 0,0 l/m 0 min 2 min 5 W/m 23,0 km/h (4 Bft) 96,61 %
05.10.2017 01:52 12,4 C 12,2 C 11,1 C 85 % 0 lf 1015,3 hPa 0,0 l/m 0 min 0 min 5 W/m 27,2 km/h (4 Bft) 97,14 %
05.10.2017 01:54 12,4 C 12,2 C 11,1 C 85 % 2 lf 1015,2 hPa 0,0 l/m 0 min 2 min 5 W/m 18,8 km/h (3 Bft) 97,87 %
05.10.2017 01:56 12,4 C 12,2 C 11,1 C 85 % 0 lf 1015,0 hPa 0,0 l/m 0 min 2 min 5 W/m 20,9 km/h (4 Bft) 97,83 %
05.10.2017 01:58 12,4 C 12,2 C 11,1 C 85 % 1 lf 1015,0 hPa 0,0 l/m 0 min 0 min 5 W/m 27,2 km/h (4 Bft) 97,92 %
05.10.2017 02:00 12,4 C 12,2 C 11,1 C 84 % 3 lf 1015,0 hPa 0,0 l/m 0 min 2 min 5 W/m 29,3 km/h (5 Bft) 91,30 %
05.10.2017 02:02 12,4 C 12,2 C 11,1 C 84 % 1 lf 1014,9 hPa 0,0 l/m 0 min 2 min 5 W/m 23,0 km/h (4 Bft) 95,74 %
05.10.2017 02:04 12,4 C 12,2 C 11,1 C 84 % 0 lf 1014,9 hPa 0,0 l/m 0 min 0 min 5 W/m 23,0 km/h (4 Bft) 95,74 %
05.10.2017 02:06 12,4 C 12,2 C 11,1 C 84 % 0 lf 1014,9 hPa 0,0 l/m 0 min 0 min 5 W/m 20,9 km/h (4 Bft) 95,74 %
05.10.2017 02:08 12,5 C 12,2 C 11,1 C 84 % 0 lf 1014,9 hPa 0,0 l/m 0 min 0 min 5 W/m 27,2 km/h (4 Bft) 91,49 %
05.10.2017 02:10 12,5 C 12,2 C 11,1 C 84 % 0 lf 1014,8 hPa 0,0 l/m 0 min 0 min 5 W/m 27,2 km/h (4 Bft) 95,74 %
05.10.2017 02:12 12,5 C 12,2 C 11,1 C 84 % 0 lf 1014,7 hPa 0,0 l/m 0 min 0 min 5 W/m 20,9 km/h (4 Bft) 93,48 %
05.10.2017 02:14 12,5 C 12,2 C 11,1 C 84 % 0 lf 1014,8 hPa 0,0 l/m 0 min 0 min 5 W/m 20,9 km/h (4 Bft) 95,74 %
05.10.2017 02:16 12,5 C 12,2 C 11,1 C 84 % 0 lf 1014,8 hPa 0,0 l/m 0 min 0 min 5 W/m 23,0 km/h (4 Bft) 95,24 %
05.10.2017 02:18 12,5 C 12,2 C 11,1 C 84 % 0 lf 1014,6 hPa 0,0 l/m 0 min 0 min 5 W/m 16,7 km/h (3 Bft) 93,75 %
05.10.2017 02:20 12,5 C 12,2 C 11,1 C 84 % 0 lf 1014,5 hPa 0,0 l/m 0 min 2 min 5 W/m 25,1 km/h (4 Bft) 89,66 %
05.10.2017 02:22 12,5 C 12,2 C 11,1 C 84 % 0 lf 1014,5 hPa 0,0 l/m 0 min 0 min 5 W/m 23,0 km/h (4 Bft) 94,29 %
05.10.2017 02:24 12,6 C 12,2 C 11,1 C 84 % 1 lf 1014,5 hPa 0,0 l/m 0 min 0 min 5 W/m 31,4 km/h (5 Bft) 95,74 %
05.10.2017 02:26 12,6 C 12,8 C 11,1 C 84 % 0 lf 1014,4 hPa 0,0 l/m 0 min 0 min 5 W/m 27,2 km/h (4 Bft) 91,49 %
05.10.2017 02:28 12,6 C 12,8 C 11,1 C 84 % 0 lf 1014,3 hPa 0,0 l/m 0 min 0 min 5 W/m 27,2 km/h (4 Bft) 95,74 %
05.10.2017 02:30 12,6 C 12,8 C 11,1 C 83 % 0 lf 1014,3 hPa 0,0 l/m 0 min 0 min 5 W/m 27,2 km/h (4 Bft) 91,49 %
05.10.2017 02:32 12,6 C 12,8 C 11,1 C 83 % 0 lf 1014,2 hPa 0,0 l/m 0 min 0 min 5 W/m 16,7 km/h (3 Bft) 93,48 %
05.10.2017 02:34 12,6 C 12,8 C 11,1 C 83 % 0 lf 1014,2 hPa 0,0 l/m 0 min 0 min 5 W/m 23,0 km/h (4 Bft) 95,74 %
05.10.2017 02:36 12,6 C 12,8 C 11,7 C 83 % 0 lf 1014,2 hPa 0,0 l/m 0 min 0 min 5 W/m 31,4 km/h (5 Bft) 95,74 %
05.10.2017 02:38 12,7 C 12,8 C 11,7 C 83 % 0 lf 1014,0 hPa 0,0 l/m 0 min 0 min 5 W/m 25,1 km/h (4 Bft) 93,62 %
05.10.2017 02:40 12,7 C 12,8 C 11,1 C 83 % 4 lf 1014,0 hPa 0,0 l/m 0 min 0 min 5 W/m 20,9 km/h (4 Bft) 93,75 %
05.10.2017 02:42 12,7 C 12,2 C 11,1 C 83 % 6 lf 1014,0 hPa 0,0 l/m 0 min 2 min 5 W/m 31,4 km/h (5 Bft) 93,62 %
05.10.2017 02:44 12,7 C 12,2 C 10,6 C 83 % 1 lf 1014,0 hPa 0,0 l/m 0 min 2 min 5 W/m 25,1 km/h (4 Bft) 95,74 %
05.10.2017 02:46 12,7 C 12,2 C 10,6 C 83 % 0 lf 1013,9 hPa 0,0 l/m 0 min 2 min 5 W/m 33,5 km/h (5 Bft) 93,62 %
05.10.2017 02:48 12,8 C 12,2 C 11,1 C 83 % 1 lf 1013,9 hPa 0,0 l/m 0 min 0 min 5 W/m 20,9 km/h (4 Bft) 93,75 %
05.10.2017 02:50 12,7 C 12,2 C 11,1 C 83 % 0 lf 1013,9 hPa 0,0 l/m 0 min 2 min 5 W/m 29,3 km/h (5 Bft) 97,87 %
05.10.2017 02:52 12,8 C 12,2 C 10,6 C 83 % 15 lf 1014,0 hPa 0,0 l/m 0 min 2 min 5 W/m 29,3 km/h (5 Bft) 97,92 %
05.10.2017 02:54 12,8 C 12,2 C 10,6 C 83 % 15 lf 1013,9 hPa 0,0 l/m 0 min 2 min 5 W/m 33,5 km/h (5 Bft) 95,65 %
05.10.2017 02:56 12,8 C 12,2 C 10,0 C 83 % 15 lf 1013,9 hPa 0,0 l/m 0 min 2 min 5 W/m 37,7 km/h (5 Bft) 93,62 %
05.10.2017 02:58 12,8 C 12,2 C 10,0 C 83 % 15 lf 1013,8 hPa 0,0 l/m 0 min 2 min 5 W/m 20,9 km/h (4 Bft) 95,74 %
05.10.2017 03:00 12,8 C 12,2 C 10,0 C 84 % 15 lf 1013,7 hPa 0,0 l/m 0 min 2 min 5 W/m 25,1 km/h (4 Bft) 93,62 %
05.10.2017 03:02 12,7 C 12,2 C 10,0 C 84 % 15 lf 1013,6 hPa 0,0 l/m 0 min 0 min 5 W/m 23,0 km/h (4 Bft) 91,49 %
05.10.2017 03:04 12,7 C 12,2 C 10,0 C 84 % 15 lf 1013,6 hPa 0,0 l/m 0 min 0 min 5 W/m 18,8 km/h (3 Bft) 95,74 %
05.10.2017 03:06 12,7 C 12,2 C 10,6 C 84 % 14 lf 1013,6 hPa 0,0 l/m 0 min 0 min 5 W/m 23,0 km/h (4 Bft) 95,74 %
05.10.2017 03:08 12,7 C 12,2 C 10,6 C 84 % 12 lf 1013,5 hPa 0,0 l/m 0 min 0 min 5 W/m 23,0 km/h (4 Bft) 95,74 %
05.10.2017 03:10 12,7 C 12,2 C 10,6 C 84 % 7 lf 1013,5 hPa 0,0 l/m 0 min 0 min 5 W/m 20,9 km/h (4 Bft) 97,83 %
05.10.2017 03:12 12,7 C 12,2 C 10,6 C 84 % 2 lf 1013,5 hPa 0,0 l/m 0 min 0 min 5 W/m 23,0 km/h (4 Bft) 95,74 %
05.10.2017 03:14 12,7 C 12,2 C 10,6 C 84 % 0 lf 1013,4 hPa 0,0 l/m 0 min 0 min 5 W/m 18,8 km/h (3 Bft) 93,62 %
05.10.2017 03:16 12,7 C 12,2 C 10,6 C 84 % 2 lf 1013,4 hPa 0,0 l/m 0 min 2 min 5 W/m 14,6 km/h (3 Bft) 93,62 %
05.10.2017 03:18 12,7 C 12,2 C 10,6 C 85 % 0 lf 1013,2 hPa 0,0 l/m 0 min 2 min 5 W/m 16,7 km/h (3 Bft) 97,87 %
05.10.2017 03:20 12,6 C 12,2 C 10,6 C 85 % 0 lf 1013,1 hPa 0,0 l/m 0 min 0 min 5 W/m 20,9 km/h (4 Bft) 98,11 %
05.10.2017 03:22 12,6 C 12,2 C 11,1 C 85 % 0 lf 1013,0 hPa 0,0 l/m 0 min 0 min 5 W/m 29,3 km/h (5 Bft) 97,14 %
05.10.2017 03:24 12,6 C 12,2 C 11,1 C 85 % 0 lf 1013,1 hPa 0,0 l/m 0 min 0 min 5 W/m 25,1 km/h (4 Bft) 95,74 %
05.10.2017 03:26 12,6 C 12,2 C 11,1 C 85 % 0 lf 1013,0 hPa 0,0 l/m 0 min 0 min 5 W/m 27,2 km/h (4 Bft) 95,83 %
05.10.2017 03:28 12,6 C 12,2 C 11,1 C 85 % 0 lf 1012,9 hPa 0,0 l/m 0 min 0 min 5 W/m 25,1 km/h (4 Bft) 97,92 %
05.10.2017 03:30 12,6 C 12,2 C 11,1 C 85 % 0 lf 1012,8 hPa 0,0 l/m 0 min 0 min 5 W/m 20,9 km/h (4 Bft) 93,48 %
05.10.2017 03:32 12,6 C 12,2 C 11,1 C 85 % 0 lf 1012,8 hPa 0,0 l/m 0 min 0 min 5 W/m 23,0 km/h (4 Bft) 97,87 %
05.10.2017 03:34 12,6 C 12,2 C 11,1 C 85 % 0 lf 1012,7 hPa 0,0 l/m 0 min 0 min 5 W/m 25,1 km/h (4 Bft) 95,74 %
05.10.2017 03:36 12,6 C 12,2 C 11,1 C 85 % 2 lf 1012,6 hPa 0,0 l/m 0 min 0 min 5 W/m 18,8 km/h (3 Bft) 97,87 %
05.10.2017 03:38 12,6 C 12,2 C 11,1 C 85 % 2 lf 1012,5 hPa 0,0 l/m 0 min 0 min 5 W/m 23,0 km/h (4 Bft) 97,87 %
05.10.2017 03:40 12,6 C 12,2 C 11,1 C 85 % 0 lf 1012,4 hPa 0,0 l/m 0 min 0 min 5 W/m 27,2 km/h (4 Bft) 100,00 %
05.10.2017 03:42 12,7 C 12,2 C 11,1 C 85 % 0 lf 1012,4 hPa 0,0 l/m 0 min 0 min 5 W/m 37,7 km/h (5 Bft) 97,83 %
05.10.2017 03:44 12,6 C 12,2 C 11,1 C 85 % 0 lf 1012,3 hPa 0,0 l/m 0 min 0 min 5 W/m 23,0 km/h (4 Bft) 100,00 %
05.10.2017 03:46 12,7 C 12,2 C 11,1 C 85 % 0 lf 1012,2 hPa 0,0 l/m 0 min 0 min 5 W/m 20,9 km/h (4 Bft) 100,00 %
05.10.2017 03:48 12,6 C 12,2 C 11,1 C 85 % 0 lf 1012,2 hPa 0,0 l/m 0 min 0 min 5 W/m 27,2 km/h (4 Bft) 100,00 %
05.10.2017 03:50 12,7 C 12,2 C 11,1 C 85 % 0 lf 1012,1 hPa 0,0 l/m 0 min 0 min 5 W/m 33,5 km/h (5 Bft) 100,00 %
05.10.2017 03:52 12,7 C 12,8 C 11,1 C 85 % 0 lf 1012,0 hPa 0,0 l/m 0 min 0 min 5 W/m 33,5 km/h (5 Bft) 100,00 %
05.10.2017 03:54 12,7 C 12,8 C 11,1 C 85 % 0 lf 1012,0 hPa 0,0 l/m 0 min 0 min 5 W/m 31,4 km/h (5 Bft) 97,87 %
05.10.2017 03:56 12,7 C 12,8 C 11,1 C 85 % 0 lf 1011,9 hPa 0,0 l/m 0 min 0 min 5 W/m 41,8 km/h (6 Bft) 100,00 %
05.10.2017 03:58 12,7 C 12,8 C 11,7 C 85 % 0 lf 1011,8 hPa 0,0 l/m 0 min 0 min 5 W/m 37,7 km/h (5 Bft) 100,00 %
05.10.2017 04:00 12,7 C 12,8 C 11,7 C 85 % 0 lf 1011,6 hPa 0,0 l/m 0 min 0 min 5 W/m 33,5 km/h (5 Bft) 97,87 %
05.10.2017 04:05 12,7 C 12,8 C 11,7 C 85 % 0 lf 1011,6 hPa 0,0 l/m 0 min 0 min 5 W/m 29,3 km/h (5 Bft) 98,53 %
05.10.2017 04:06 12,7 C 12,8 C 11,7 C 85 % 0 lf 1011,6 hPa 0,0 l/m 0 min 0 min 5 W/m 31,4 km/h (5 Bft) 100,00 %
05.10.2017 04:08 12,7 C 12,8 C 11,7 C 85 % 0 lf 1011,7 hPa 0,0 l/m 0 min 0 min 5 W/m 43,9 km/h (6 Bft) 97,87 %
05.10.2017 04:10 12,8 C 12,8 C 11,7 C 85 % 0 lf 1011,6 hPa 0,0 l/m 0 min 0 min 5 W/m 33,5 km/h (5 Bft) 95,83 %
05.10.2017 04:12 12,8 C 12,8 C 11,7 C 85 % 0 lf 1011,6 hPa 0,0 l/m 0 min 0 min 5 W/m 41,8 km/h (6 Bft) 97,87 %
05.10.2017 04:14 12,8 C 12,8 C 11,7 C 85 % 0 lf 1011,5 hPa 0,0 l/m 0 min 0 min 5 W/m 23,0 km/h (4 Bft) 97,87 %
05.10.2017 04:16 12,8 C 12,8 C 11,7 C 85 % 0 lf 1011,4 hPa 0,0 l/m 0 min 0 min 5 W/m 33,5 km/h (5 Bft) 97,83 %
05.10.2017 04:18 12,8 C 12,8 C 11,7 C 85 % 0 lf 1011,3 hPa 0,0 l/m 0 min 0 min 5 W/m 29,3 km/h (5 Bft) 97,87 %
05.10.2017 04:20 12,8 C 12,8 C 11,7 C 85 % 0 lf 1011,2 hPa 0,0 l/m 0 min 0 min 5 W/m 33,5 km/h (5 Bft) 93,33 %
05.10.2017 04:22 12,8 C 12,8 C 11,7 C 85 % 0 lf 1010,9 hPa 0,0 l/m 0 min 0 min 5 W/m 35,6 km/h (5 Bft) 97,14 %
05.10.2017 04:24 12,8 C 12,8 C 11,7 C 85 % 0 lf 1010,8 hPa 0,0 l/m 0 min 0 min 5 W/m 43,9 km/h (6 Bft) 97,87 %
05.10.2017 04:26 12,8 C 12,8 C 11,7 C 85 % 0 lf 1010,8 hPa 0,0 l/m 0 min 0 min 5 W/m 27,2 km/h (4 Bft) 97,83 %
05.10.2017 04:28 12,8 C 12,8 C 11,7 C 85 % 0 lf 1010,7 hPa 0,0 l/m 0 min 0 min 5 W/m 33,5 km/h (5 Bft) 93,62 %
05.10.2017 04:30 12,8 C 12,8 C 11,7 C 85 % 0 lf 1010,6 hPa 0,0 l/m 0 min 0 min 5 W/m 39,7 km/h (6 Bft) 95,74 %
05.10.2017 04:32 12,8 C 12,8 C 11,7 C 85 % 0 lf 1010,7 hPa 0,0 l/m 0 min 0 min 5 W/m 31,4 km/h (5 Bft) 95,74 %
05.10.2017 04:34 12,8 C 12,8 C 11,7 C 85 % 0 lf 1010,6 hPa 0,0 l/m 0 min 0 min 5 W/m 27,2 km/h (4 Bft) 97,87 %
05.10.2017 04:36 12,8 C 12,8 C 11,7 C 85 % 0 lf 1010,5 hPa 0,0 l/m 0 min 0 min 5 W/m 31,4 km/h (5 Bft) 93,62 %
05.10.2017 04:38 12,8 C 12,8 C 11,7 C 85 % 0 lf 1010,4 hPa 0,0 l/m 0 min 0 min 5 W/m 37,7 km/h (5 Bft) 95,74 %
05.10.2017 04:40 12,8 C 12,8 C 11,7 C 85 % 0 lf 1010,5 hPa 0,0 l/m 0 min 0 min 5 W/m 35,6 km/h (5 Bft) 93,62 %
05.10.2017 04:42 12,8 C 12,8 C 11,7 C 85 % 0 lf 1010,6 hPa 0,0 l/m 0 min 0 min 5 W/m 37,7 km/h (5 Bft) 95,74 %
05.10.2017 04:44 12,8 C 12,8 C 11,7 C 85 % 0 lf 1010,6 hPa 0,0 l/m 0 min 0 min 5 W/m 43,9 km/h (6 Bft) 93,48 %
05.10.2017 04:46 12,8 C 12,8 C 11,7 C 85 % 0 lf 1010,6 hPa 0,0 l/m 0 min 0 min 5 W/m 37,7 km/h (5 Bft) 97,62 %
05.10.2017 04:48 12,8 C 12,8 C 11,7 C 85 % 0 lf 1010,4 hPa 0,0 l/m 0 min 0 min 5 W/m 25,1 km/h (4 Bft) 97,92 %
05.10.2017 04:50 12,8 C 12,8 C 11,7 C 85 % 0 lf 1010,5 hPa 0,0 l/m 0 min 0 min 5 W/m 33,5 km/h (5 Bft) 96,61 %
05.10.2017 04:52 12,8 C 12,8 C 11,7 C 85 % 0 lf 1010,5 hPa 0,0 l/m 0 min 0 min 5 W/m 35,6 km/h (5 Bft) 97,22 %
05.10.2017 04:54 12,8 C 12,8 C 11,7 C 85 % 0 lf 1010,3 hPa 0,0 l/m 0 min 0 min 5 W/m 29,3 km/h (5 Bft) 95,74 %
05.10.2017 04:56 12,8 C 12,8 C 11,7 C 85 % 0 lf 1010,3 hPa 0,0 l/m 0 min 0 min 5 W/m 35,6 km/h (5 Bft) 97,87 %
05.10.2017 04:58 12,8 C 12,8 C 11,7 C 85 % 0 lf 1010,4 hPa 0,0 l/m 0 min 0 min 5 W/m 39,7 km/h (6 Bft) 97,87 %
05.10.2017 05:00 12,8 C 12,8 C 11,7 C 85 % 0 lf 1010,2 hPa 0,0 l/m 0 min 0 min 5 W/m 25,1 km/h (4 Bft) 95,74 %
05.10.2017 05:02 12,8 C 12,8 C 11,7 C 85 % 0 lf 1010,2 hPa 0,0 l/m 0 min 0 min 5 W/m 23,0 km/h (4 Bft) 97,83 %
05.10.2017 05:04 12,8 C 12,8 C 11,7 C 85 % 0 lf 1010,1 hPa 0,0 l/m 0 min 0 min 5 W/m 31,4 km/h (5 Bft) 97,87 %
05.10.2017 05:06 12,8 C 12,8 C 11,7 C 85 % 0 lf 1009,9 hPa 0,0 l/m 0 min 0 min 5 W/m 37,7 km/h (5 Bft) 97,87 %
05.10.2017 05:08 12,8 C 12,8 C 11,7 C 85 % 0 lf 1009,9 hPa 0,0 l/m 0 min 0 min 5 W/m 35,6 km/h (5 Bft) 97,92 %
05.10.2017 05:10 12,8 C 12,8 C 11,7 C 85 % 0 lf 1009,8 hPa 0,0 l/m 0 min 0 min 5 W/m 41,8 km/h (6 Bft) 97,92 %
05.10.2017 05:12 12,8 C 12,8 C 11,7 C 85 % 0 lf 1009,8 hPa 0,0 l/m 0 min 0 min 5 W/m 31,4 km/h (5 Bft) 95,74 %
05.10.2017 05:14 12,8 C 12,8 C 11,7 C 85 % 0 lf 1009,8 hPa 0,0 l/m 0 min 0 min 5 W/m 33,5 km/h (5 Bft) 97,83 %
05.10.2017 05:16 12,8 C 12,8 C 11,7 C 85 % 0 lf 1009,7 hPa 0,0 l/m 0 min 0 min 5 W/m 48,1 km/h (6 Bft) 100,00 %
05.10.2017 05:18 12,8 C 12,8 C 11,7 C 85 % 0 lf 1009,6 hPa 0,0 l/m 0 min 0 min 5 W/m 29,3 km/h (5 Bft) 100,00 %
05.10.2017 05:20 12,8 C 12,8 C 11,7 C 85 % 0 lf 1009,5 hPa 0,0 l/m 0 min 0 min 5 W/m 29,3 km/h (5 Bft) 94,92 %
05.10.2017 05:22 12,8 C 12,8 C 11,7 C 85 % 0 lf 1009,6 hPa 0,0 l/m 0 min 0 min 5 W/m 29,3 km/h (5 Bft) 97,14 %
05.10.2017 05:24 12,8 C 12,8 C 11,7 C 85 % 0 lf 1009,5 hPa 0,0 l/m 0 min 0 min 5 W/m 25,1 km/h (4 Bft) 100,00 %
05.10.2017 05:26 12,8 C 12,8 C 11,7 C 85 % 0 lf 1009,5 hPa 0,0 l/m 0 min 0 min 5 W/m 35,6 km/h (5 Bft) 95,74 %
05.10.2017 05:28 12,8 C 12,8 C 11,7 C 85 % 0 lf 1009,3 hPa 0,0 l/m 0 min 0 min 5 W/m 46,0 km/h (6 Bft) 97,87 %
05.10.2017 05:30 12,8 C 12,8 C 11,7 C 85 % 0 lf 1009,4 hPa 0,0 l/m 0 min 0 min 5 W/m 35,6 km/h (5 Bft) 97,83 %
05.10.2017 05:32 12,8 C 12,8 C 11,7 C 85 % 0 lf 1009,4 hPa 0,0 l/m 0 min 0 min 5 W/m 41,8 km/h (6 Bft) 95,74 %
05.10.2017 05:34 12,8 C 12,8 C 11,7 C 85 % 0 lf 1009,2 hPa 0,0 l/m 0 min 0 min 5 W/m 46,0 km/h (6 Bft) 95,74 %
05.10.2017 05:35 12,8 C 12,8 C 11,7 C 85 % 0 lf 1009,2 hPa 0,0 l/m 0 min 0 min 5 W/m 50,2 km/h (7 Bft) 97,37 %
05.10.2017 05:40 12,8 C 12,8 C 11,7 C 85 % 0 lf 1009,0 hPa 0,0 l/m 0 min 0 min 5 W/m 35,6 km/h (5 Bft) 100,00 %
05.10.2017 05:42 12,8 C 12,8 C 11,7 C 85 % 0 lf 1008,9 hPa 0,0 l/m 0 min 0 min 5 W/m 46,0 km/h (6 Bft) 100,00 %
05.10.2017 05:44 12,8 C 12,8 C 11,7 C 85 % 0 lf 1008,9 hPa 0,0 l/m 0 min 0 min 5 W/m 35,6 km/h (5 Bft) 98,28 %
05.10.2017 05:46 12,7 C 12,8 C 11,7 C 85 % 0 lf 1009,0 hPa 0,0 l/m 0 min 0 min 5 W/m 46,0 km/h (6 Bft) 100,00 %
05.10.2017 05:48 12,7 C 12,8 C 11,7 C 85 % 0 lf 1009,0 hPa 0,0 l/m 0 min 0 min 5 W/m 54,4 km/h (7 Bft) 97,87 %
05.10.2017 05:50 12,7 C 12,8 C 11,7 C 85 % 0 lf 1008,9 hPa 0,0 l/m 0 min 0 min 5 W/m 37,7 km/h (5 Bft) 93,48 %
05.10.2017 05:52 12,7 C 12,8 C 11,7 C 85 % 0 lf 1008,8 hPa 0,0 l/m 0 min 0 min 5 W/m 39,7 km/h (6 Bft) 94,55 %
05.10.2017 05:54 12,7 C 12,8 C 11,7 C 85 % 0 lf 1008,7 hPa 0,0 l/m 0 min 0 min 5 W/m 46,0 km/h (6 Bft) 95,74 %
05.10.2017 05:56 12,7 C 12,8 C 11,7 C 85 % 0 lf 1008,6 hPa 0,0 l/m 0 min 0 min 5 W/m 43,9 km/h (6 Bft) 87,23 %
05.10.2017 05:58 12,7 C 12,8 C 11,7 C 85 % 0 lf 1008,7 hPa 0,0 l/m 0 min 0 min 5 W/m 35,6 km/h (5 Bft) 92,00 %
05.10.2017 06:00 12,7 C 12,8 C 11,7 C 85 % 0 lf 1008,6 hPa 0,0 l/m 0 min 0 min 5 W/m 39,7 km/h (6 Bft) 95,74 %
05.10.2017 06:02 12,7 C 12,2 C 11,7 C 86 % 0 lf 1008,6 hPa 0,0 l/m 0 min 0 min 5 W/m 16,7 km/h (3 Bft) 91,43 %
05.10.2017 06:04 12,7 C 12,2 C 11,7 C 86 % 0 lf 1008,6 hPa 0,0 l/m 0 min 0 min 5 W/m 35,6 km/h (5 Bft) 95,74 %
05.10.2017 06:06 12,7 C 12,2 C 11,7 C 85 % 0 lf 1008,7 hPa 0,0 l/m 0 min 0 min 5 W/m 37,7 km/h (5 Bft) 93,62 %
05.10.2017 06:10 12,7 C 12,2 C 11,7 C 86 % 0 lf 1008,6 hPa 0,0 l/m 0 min 0 min 5 W/m 35,6 km/h (5 Bft) 95,19 %
05.10.2017 06:12 12,7 C 12,2 C 11,7 C 86 % 0 lf 1008,7 hPa 0,0 l/m 0 min 0 min 5 W/m 29,3 km/h (5 Bft) 93,62 %
05.10.2017 06:14 12,7 C 12,2 C 11,7 C 86 % 0 lf 1008,8 hPa 0,0 l/m 0 min 0 min 5 W/m 39,7 km/h (6 Bft) 91,49 %
05.10.2017 06:16 12,7 C 12,8 C 11,7 C 86 % 0 lf 1009,1 hPa 0,0 l/m 0 min 0 min 5 W/m 33,5 km/h (5 Bft) 95,65 %
05.10.2017 06:18 12,7 C 12,2 C 11,7 C 86 % 0 lf 1009,2 hPa 0,0 l/m 0 min 0 min 5 W/m 33,5 km/h (5 Bft) 93,88 %
05.10.2017 06:20 12,7 C 12,2 C 11,7 C 86 % 0 lf 1009,1 hPa 0,0 l/m 0 min 0 min 5 W/m 29,3 km/h (5 Bft) 91,49 %
05.10.2017 06:22 12,7 C 12,2 C 11,1 C 86 % 14 lf 1009,2 hPa 0,0 l/m 0 min 2 min 5 W/m 37,7 km/h (5 Bft) 91,43 %
05.10.2017 06:24 12,7 C 11,7 C 10,6 C 86 % 15 lf 1009,1 hPa 0,0 l/m 0 min 2 min 5 W/m 37,7 km/h (5 Bft) 93,62 %
05.10.2017 06:26 12,7 C 11,7 C 10,6 C 86 % 15 lf 1009,0 hPa 0,0 l/m 0 min 2 min 5 W/m 48,1 km/h (6 Bft) 91,30 %
05.10.2017 06:28 12,6 C 11,7 C 10,6 C 87 % 15 lf 1009,0 hPa 0,0 l/m 0 min 2 min 5 W/m 37,7 km/h (5 Bft) 92,59 %
05.10.2017 06:30 12,6 C 11,7 C 10,0 C 87 % 15 lf 1008,8 hPa 0,0 l/m 0 min 2 min 5 W/m 35,6 km/h (5 Bft) 95,74 %
05.10.2017 06:32 12,6 C 11,1 C 10,0 C 87 % 15 lf 1008,6 hPa 0,0 l/m 0 min 2 min 5 W/m 46,0 km/h (6 Bft) 94,00 %
05.10.2017 06:34 12,5 C 11,1 C 10,0 C 87 % 15 lf 1008,7 hPa 0,0 l/m 0 min 2 min 5 W/m 39,7 km/h (6 Bft) 97,30 %
05.10.2017 06:36 12,4 C 11,1 C 10,0 C 88 % 15 lf 1008,6 hPa 0,2 l/m 0 min 2 min 5 W/m 41,8 km/h (6 Bft) 93,10 %
05.10.2017 06:38 12,4 C 11,1 C 10,0 C 88 % 15 lf 1008,6 hPa 0,0 l/m 0 min 2 min 5 W/m 41,8 km/h (6 Bft) 97,14 %
05.10.2017 06:40 12,3 C 11,1 C 10,0 C 88 % 15 lf 1008,5 hPa 0,0 l/m 0 min 2 min 5 W/m 37,7 km/h (5 Bft) 95,74 %
05.10.2017 06:42 12,2 C 11,1 C 10,0 C 89 % 15 lf 1008,5 hPa 0,0 l/m 0 min 2 min 5 W/m 33,5 km/h (5 Bft) 95,74 %
05.10.2017 06:44 12,2 C 11,1 C 10,0 C 89 % 15 lf 1008,5 hPa 0,0 l/m 0 min 2 min 5 W/m 39,7 km/h (6 Bft) 93,62 %
05.10.2017 06:46 12,2 C 11,1 C 10,0 C 90 % 15 lf 1008,4 hPa 0,0 l/m 0 min 2 min 5 W/m 46,0 km/h (6 Bft) 98,18 %
05.10.2017 06:48 12,1 C 11,1 C 10,0 C 90 % 15 lf 1008,4 hPa 0,0 l/m 0 min 2 min 5 W/m 50,2 km/h (7 Bft) 98,00 %
05.10.2017 06:50 12,1 C 11,1 C 10,0 C 90 % 15 lf 1008,3 hPa 0,0 l/m 0 min 2 min 5 W/m 29,3 km/h (5 Bft) 97,83 %
05.10.2017 06:52 12,1 C 11,1 C 10,0 C 90 % 15 lf 1008,3 hPa 0,0 l/m 0 min 0 min 5 W/m 33,5 km/h (5 Bft) 95,74 %
05.10.2017 06:54 12,0 C 11,1 C 10,0 C 90 % 15 lf 1008,2 hPa 0,0 l/m 0 min 0 min 5 W/m 35,6 km/h (5 Bft) 94,44 %
05.10.2017 06:56 12,0 C 11,1 C 10,0 C 91 % 15 lf 1008,2 hPa 0,0 l/m 0 min 2 min 5 W/m 35,6 km/h (5 Bft) 100,00 %
05.10.2017 06:58 12,0 C 10,6 C 10,0 C 91 % 15 lf 1008,2 hPa 0,0 l/m 0 min 2 min 5 W/m 23,0 km/h (4 Bft) 100,00 %
05.10.2017 07:00 11,9 C 10,6 C 10,0 C 91 % 15 lf 1008,2 hPa 0,2 l/m 0 min 2 min 5 W/m 35,6 km/h (5 Bft) 97,83 %
05.10.2017 07:02 11,9 C 10,6 C 10,0 C 91 % 15 lf 1008,1 hPa 0,0 l/m 0 min 2 min 5 W/m 41,8 km/h (6 Bft) 100,00 %
05.10.2017 07:04 11,8 C 10,6 C 10,0 C 91 % 15 lf 1008,1 hPa 0,2 l/m 0 min 2 min 5 W/m 37,7 km/h (5 Bft) 100,00 %
05.10.2017 07:06 11,8 C 10,6 C 10,0 C 92 % 15 lf 1008,0 hPa 0,0 l/m 0 min 2 min 5 W/m 35,6 km/h (5 Bft) 100,00 %
05.10.2017 07:08 11,8 C 10,6 C 10,0 C 92 % 15 lf 1008,0 hPa 0,0 l/m 0 min 2 min 5 W/m 31,4 km/h (5 Bft) 100,00 %
05.10.2017 07:10 11,7 C 10,6 C 10,0 C 92 % 15 lf 1007,9 hPa 0,0 l/m 0 min 2 min 5 W/m 35,6 km/h (5 Bft) 96,36 %
05.10.2017 07:12 11,7 C 10,6 C 10,0 C 92 % 15 lf 1007,9 hPa 0,0 l/m 0 min 2 min 5 W/m 37,7 km/h (5 Bft) 100,00 %
05.10.2017 07:14 11,7 C 10,6 C 10,0 C 92 % 15 lf 1007,9 hPa 0,2 l/m 0 min 2 min 5 W/m 29,3 km/h (5 Bft) 100,00 %
05.10.2017 07:16 11,7 C 10,6 C 10,0 C 92 % 15 lf 1007,8 hPa 0,0 l/m 0 min 2 min 5 W/m 46,0 km/h (6 Bft) 100,00 %
05.10.2017 07:18 11,7 C 10,6 C 10,0 C 93 % 15 lf 1007,8 hPa 0,0 l/m 0 min 2 min 5 W/m 41,8 km/h (6 Bft) 97,87 %
05.10.2017 07:20 11,7 C 10,6 C 10,0 C 93 % 15 lf 1007,7 hPa 0,0 l/m 0 min 0 min 5 W/m 27,2 km/h (4 Bft) 97,87 %
05.10.2017 07:22 11,6 C 10,6 C 10,0 C 93 % 15 lf 1007,6 hPa 0,0 l/m 0 min 2 min 5 W/m 31,4 km/h (5 Bft) 98,18 %
05.10.2017 07:24 11,6 C 10,6 C 10,0 C 93 % 15 lf 1007,6 hPa 0,2 l/m 0 min 2 min 5 W/m 29,3 km/h (5 Bft) 98,00 %
05.10.2017 07:26 11,6 C 10,6 C 10,0 C 93 % 15 lf 1007,6 hPa 0,2 l/m 0 min 2 min 5 W/m 31,4 km/h (5 Bft) 95,65 %
05.10.2017 07:28 11,6 C 10,6 C 10,0 C 93 % 15 lf 1007,5 hPa 0,0 l/m 0 min 2 min 5 W/m 31,4 km/h (5 Bft) 95,74 %
05.10.2017 07:30 11,6 C 10,6 C 10,0 C 93 % 15 lf 1007,3 hPa 0,0 l/m 0 min 2 min 5 W/m 35,6 km/h (5 Bft) 97,22 %
05.10.2017 07:32 11,6 C 10,6 C 10,0 C 93 % 15 lf 1007,2 hPa 0,0 l/m 0 min 2 min 5 W/m 31,4 km/h (5 Bft) 97,87 %
05.10.2017 07:34 11,6 C 10,6 C 10,0 C 94 % 15 lf 1007,2 hPa 0,0 l/m 0 min 2 min 5 W/m 37,7 km/h (5 Bft) 97,87 %
05.10.2017 07:36 11,6 C 10,6 C 10,0 C 94 % 15 lf 1007,3 hPa 0,2 l/m 0 min 2 min 5 W/m 41,8 km/h (6 Bft) 96,36 %
05.10.2017 07:38 11,6 C 10,6 C 10,0 C 94 % 15 lf 1007,3 hPa 0,0 l/m 0 min 2 min 5 W/m 41,8 km/h (6 Bft) 97,96 %
05.10.2017 07:40 11,6 C 10,6 C 10,0 C 94 % 15 lf 1007,2 hPa 0,0 l/m 0 min 0 min 5 W/m 33,5 km/h (5 Bft) 97,22 %
05.10.2017 07:42 11,6 C 10,6 C 10,0 C 94 % 15 lf 1007,2 hPa 0,0 l/m 0 min 0 min 5 W/m 37,7 km/h (5 Bft) 97,87 %
05.10.2017 07:44 11,6 C 10,6 C 10,0 C 94 % 15 lf 1007,2 hPa 0,0 l/m 0 min 0 min 5 W/m 35,6 km/h (5 Bft) 95,74 %
05.10.2017 07:46 11,6 C 10,6 C 10,0 C 94 % 15 lf 1007,2 hPa 0,0 l/m 0 min 0 min 5 W/m 37,7 km/h (5 Bft) 95,65 %
05.10.2017 07:48 11,6 C 10,6 C 10,0 C 94 % 15 lf 1007,2 hPa 0,0 l/m 0 min 0 min 5 W/m 43,9 km/h (6 Bft) 95,74 %
05.10.2017 07:50 11,6 C 10,6 C 10,0 C 94 % 15 lf 1007,0 hPa 0,0 l/m 0 min 0 min 5 W/m 43,9 km/h (6 Bft) 97,87 %
05.10.2017 07:52 11,6 C 10,6 C 10,0 C 94 % 15 lf 1007,1 hPa 0,0 l/m 0 min 0 min 5 W/m 29,3 km/h (5 Bft) 97,87 %
05.10.2017 07:54 11,6 C 11,1 C 10,0 C 95 % 15 lf 1007,0 hPa 0,0 l/m 0 min 0 min 6 W/m 29,3 km/h (5 Bft) 97,87 %
05.10.2017 07:56 11,6 C 11,1 C 10,0 C 95 % 15 lf 1006,9 hPa 0,0 l/m 0 min 0 min 7 W/m 33,5 km/h (5 Bft) 95,74 %
05.10.2017 07:58 11,6 C 11,1 C 10,0 C 95 % 15 lf 1007,0 hPa 0,0 l/m 0 min 0 min 7 W/m 37,7 km/h (5 Bft) 97,87 %
05.10.2017 08:00 11,6 C 11,1 C 10,0 C 95 % 15 lf 1007,0 hPa 0,0 l/m 0 min 0 min 7 W/m 29,3 km/h (5 Bft) 96,36 %
05.10.2017 08:02 11,6 C 11,1 C 10,0 C 95 % 15 lf 1006,9 hPa 0,0 l/m 0 min 0 min 7 W/m 27,2 km/h (4 Bft) 91,30 %
05.10.2017 08:04 11,6 C 11,1 C 10,0 C 95 % 15 lf 1006,8 hPa 0,0 l/m 0 min 0 min 9 W/m 35,6 km/h (5 Bft) 94,00 %
05.10.2017 08:06 11,6 C 11,1 C 10,0 C 95 % 15 lf 1006,8 hPa 0,0 l/m 0 min 0 min 9 W/m 41,8 km/h (6 Bft) 97,22 %
05.10.2017 08:08 11,6 C 11,1 C 10,0 C 95 % 15 lf 1006,8 hPa 0,0 l/m 0 min 2 min 9 W/m 33,5 km/h (5 Bft) 97,87 %
05.10.2017 08:10 11,7 C 11,1 C 10,0 C 95 % 15 lf 1006,7 hPa 0,2 l/m 0 min 2 min 9 W/m 41,8 km/h (6 Bft) 93,48 %
05.10.2017 08:12 11,7 C 11,1 C 10,0 C 95 % 15 lf 1006,6 hPa 0,0 l/m 0 min 2 min 9 W/m 43,9 km/h (6 Bft) 97,87 %
05.10.2017 08:14 11,7 C 11,1 C 10,0 C 95 % 15 lf 1006,6 hPa 0,0 l/m 0 min 2 min 9 W/m 41,8 km/h (6 Bft) 97,87 %
05.10.2017 08:16 11,7 C 11,1 C 10,0 C 95 % 15 lf 1006,6 hPa 0,0 l/m 0 min 2 min 9 W/m 31,4 km/h (5 Bft) 96,36 %
05.10.2017 08:18 11,7 C 11,1 C 10,0 C 95 % 15 lf 1006,6 hPa 0,0 l/m 0 min 0 min 10 W/m 35,6 km/h (5 Bft) 97,87 %
05.10.2017 08:20 11,7 C 11,1 C 10,0 C 95 % 15 lf 1006,6 hPa 0,0 l/m 0 min 2 min 8 W/m 37,7 km/h (5 Bft) 91,49 %
05.10.2017 08:22 11,7 C 11,1 C 10,0 C 95 % 15 lf 1006,6 hPa 0,0 l/m 0 min 0 min 7 W/m 31,4 km/h (5 Bft) 97,87 %
05.10.2017 08:24 11,7 C 11,1 C 10,0 C 95 % 15 lf 1006,5 hPa 0,0 l/m 0 min 0 min 7 W/m 33,5 km/h (5 Bft) 97,83 %
05.10.2017 08:26 11,7 C 11,1 C 10,0 C 95 % 15 lf 1006,5 hPa 0,0 l/m 0 min 0 min 7 W/m 33,5 km/h (5 Bft) 98,00 %
05.10.2017 08:28 11,7 C 11,1 C 10,0 C 95 % 15 lf 1006,5 hPa 0,0 l/m 0 min 0 min 8 W/m 37,7 km/h (5 Bft) 97,87 %
05.10.2017 08:30 11,7 C 11,1 C 10,0 C 95 % 15 lf 1006,5 hPa 0,0 l/m 0 min 2 min 8 W/m 41,8 km/h (6 Bft) 95,74 %
05.10.2017 08:32 11,8 C 11,1 C 10,0 C 95 % 15 lf 1006,4 hPa 0,0 l/m 0 min 2 min 9 W/m 43,9 km/h (6 Bft) 97,22 %
05.10.2017 08:34 11,8 C 11,1 C 10,0 C 95 % 15 lf 1006,3 hPa 0,0 l/m 0 min 0 min 10 W/m 39,7 km/h (6 Bft) 95,65 %
05.10.2017 08:36 11,8 C 11,1 C 10,0 C 95 % 15 lf 1006,2 hPa 0,0 l/m 0 min 0 min 11 W/m 48,1 km/h (6 Bft) 95,74 %
05.10.2017 08:38 11,8 C 11,1 C 10,0 C 95 % 15 lf 1006,3 hPa 0,0 l/m 0 min 2 min 12 W/m 41,8 km/h (6 Bft) 93,62 %
05.10.2017 08:40 11,9 C 11,1 C 10,6 C 95 % 15 lf 1006,2 hPa 0,0 l/m 0 min 2 min 12 W/m 35,6 km/h (5 Bft) 97,87 %
05.10.2017 08:42 11,9 C 11,1 C 10,6 C 95 % 15 lf 1006,2 hPa 0,0 l/m 0 min 2 min 12 W/m 46,0 km/h (6 Bft) 97,87 %
05.10.2017 08:44 11,9 C 11,1 C 10,6 C 95 % 15 lf 1006,2 hPa 0,0 l/m 0 min 2 min 12 W/m 35,6 km/h (5 Bft) 95,74 %
05.10.2017 08:46 11,9 C 11,1 C 10,6 C 95 % 15 lf 1006,3 hPa 0,0 l/m 0 min 0 min 12 W/m 33,5 km/h (5 Bft) 97,83 %
05.10.2017 08:48 12,0 C 11,7 C 10,6 C 95 % 15 lf 1006,4 hPa 0,0 l/m 0 min 0 min 16 W/m 41,8 km/h (6 Bft) 96,36 %
05.10.2017 08:50 12,1 C 11,7 C 10,6 C 95 % 15 lf 1006,2 hPa 0,0 l/m 0 min 2 min 19 W/m 46,0 km/h (6 Bft) 97,87 %
05.10.2017 08:52 12,1 C 11,7 C 10,6 C 95 % 15 lf 1006,2 hPa 0,0 l/m 0 min 0 min 19 W/m 43,9 km/h (6 Bft) 93,62 %
05.10.2017 08:54 12,1 C 11,7 C 10,6 C 95 % 15 lf 1006,3 hPa 0,0 l/m 0 min 0 min 15 W/m 35,6 km/h (5 Bft) 95,74 %
05.10.2017 08:56 12,1 C 11,7 C 10,6 C 95 % 15 lf 1006,1 hPa 0,0 l/m 0 min 2 min 15 W/m 29,3 km/h (5 Bft) 93,62 %
05.10.2017 08:58 12,2 C 11,7 C 10,6 C 95 % 15 lf 1006,2 hPa 0,0 l/m 0 min 0 min 17 W/m 31,4 km/h (5 Bft) 97,87 %
05.10.2017 09:00 12,2 C 11,7 C 10,6 C 95 % 15 lf 1006,1 hPa 0,0 l/m 0 min 0 min 16 W/m 33,5 km/h (5 Bft) 95,92 %
05.10.2017 09:02 12,2 C 11,7 C 10,6 C 95 % 15 lf 1006,1 hPa 0,0 l/m 0 min 0 min 18 W/m 35,6 km/h (5 Bft) 97,22 %
05.10.2017 09:04 12,2 C 11,7 C 10,6 C 95 % 15 lf 1006,3 hPa 0,0 l/m 0 min 2 min 17 W/m 39,7 km/h (6 Bft) 95,74 %
05.10.2017 09:06 12,3 C 11,7 C 10,6 C 95 % 15 lf 1006,3 hPa 0,0 l/m 0 min 2 min 13 W/m 37,7 km/h (5 Bft) 95,74 %
05.10.2017 09:08 12,3 C 11,7 C 10,6 C 95 % 15 lf 1006,1 hPa 0,0 l/m 0 min 0 min 12 W/m 39,7 km/h (6 Bft) 98,18 %
05.10.2017 09:10 12,3 C 11,7 C 10,6 C 95 % 15 lf 1006,2 hPa 0,0 l/m 0 min 0 min 14 W/m 41,8 km/h (6 Bft) 93,62 %
05.10.2017 09:12 12,4 C 11,7 C 10,6 C 95 % 15 lf 1006,3 hPa 0,0 l/m 0 min 0 min 14 W/m 27,2 km/h (4 Bft) 91,84 %
05.10.2017 09:14 12,4 C 11,7 C 10,6 C 95 % 15 lf 1006,4 hPa 0,0 l/m 0 min 2 min 16 W/m 43,9 km/h (6 Bft) 97,87 %
05.10.2017 09:16 12,4 C 11,7 C 10,6 C 95 % 15 lf 1006,3 hPa 0,0 l/m 0 min 0 min 18 W/m 31,4 km/h (5 Bft) 93,62 %
05.10.2017 09:18 12,5 C 11,7 C 10,6 C 95 % 15 lf 1006,2 hPa 0,0 l/m 0 min 0 min 20 W/m 37,7 km/h (5 Bft) 100,00 %
05.10.2017 09:20 12,5 C 11,7 C 11,1 C 95 % 15 lf 1006,2 hPa 0,0 l/m 0 min 0 min 21 W/m 35,6 km/h (5 Bft) 100,00 %
05.10.2017 09:22 12,5 C 11,7 C 11,1 C 95 % 15 lf 1006,3 hPa 0,0 l/m 0 min 0 min 25 W/m 52,3 km/h (7 Bft) 97,83 %
05.10.2017 09:24 12,6 C 11,7 C 11,1 C 95 % 15 lf 1006,2 hPa 0,0 l/m 0 min 2 min 28 W/m 43,9 km/h (6 Bft) 100,00 %
05.10.2017 09:26 12,6 C 11,7 C 11,1 C 95 % 15 lf 1006,2 hPa 0,0 l/m 0 min 2 min 21 W/m 37,7 km/h (5 Bft) 100,00 %
05.10.2017 09:28 12,6 C 11,7 C 11,1 C 95 % 15 lf 1006,3 hPa 0,0 l/m 0 min 2 min 17 W/m 39,7 km/h (6 Bft) 100,00 %
05.10.2017 09:30 12,6 C 12,2 C 11,1 C 95 % 15 lf 1006,2 hPa 0,0 l/m 0 min 2 min 26 W/m 46,0 km/h (6 Bft) 100,00 %
05.10.2017 09:32 12,7 C 12,2 C 11,1 C 95 % 15 lf 1006,1 hPa 0,0 l/m 0 min 0 min 32 W/m 43,9 km/h (6 Bft) 100,00 %
05.10.2017 09:34 12,7 C 12,2 C 11,1 C 95 % 15 lf 1006,1 hPa 0,0 l/m 0 min 2 min 36 W/m 29,3 km/h (5 Bft) 98,21 %
05.10.2017 09:36 12,7 C 12,2 C 11,1 C 95 % 15 lf 1006,1 hPa 0,0 l/m 0 min 0 min 41 W/m 31,4 km/h (5 Bft) 97,83 %
05.10.2017 09:38 12,7 C 12,2 C 11,1 C 95 % 15 lf 1006,2 hPa 0,0 l/m 0 min 2 min 36 W/m 29,3 km/h (5 Bft) 98,00 %
05.10.2017 09:40 12,7 C 12,2 C 11,1 C 96 % 15 lf 1006,2 hPa 0,0 l/m 0 min 2 min 40 W/m 41,8 km/h (6 Bft) 97,22 %
05.10.2017 09:42 12,7 C 12,2 C 11,1 C 96 % 15 lf 1006,1 hPa 0,0 l/m 0 min 2 min 51 W/m 41,8 km/h (6 Bft) 97,87 %
05.10.2017 09:44 12,8 C 12,2 C 11,1 C 96 % 15 lf 1006,2 hPa 0,0 l/m 0 min 2 min 64 W/m 46,0 km/h (6 Bft) 96,36 %
05.10.2017 09:46 12,8 C 12,2 C 11,7 C 96 % 15 lf 1006,2 hPa 0,0 l/m 0 min 2 min 73 W/m 37,7 km/h (5 Bft) 97,83 %
05.10.2017 09:48 12,8 C 12,2 C 11,7 C 96 % 15 lf 1006,0 hPa 0,0 l/m 0 min 2 min 70 W/m 35,6 km/h (5 Bft) 97,87 %
05.10.2017 09:50 12,8 C 12,2 C 11,7 C 96 % 15 lf 1006,1 hPa 0,0 l/m 0 min 2 min 48 W/m 41,8 km/h (6 Bft) 95,74 %
05.10.2017 09:52 12,8 C 12,2 C 11,7 C 96 % 15 lf 1006,2 hPa 0,2 l/m 0 min 2 min 46 W/m 41,8 km/h (6 Bft) 97,87 %
05.10.2017 09:54 12,8 C 12,2 C 11,7 C 96 % 15 lf 1006,1 hPa 0,0 l/m 0 min 2 min 55 W/m 33,5 km/h (5 Bft) 97,87 %
05.10.2017 09:56 12,9 C 12,2 C 11,7 C 96 % 15 lf 1006,1 hPa 0,0 l/m 0 min 2 min 48 W/m 41,8 km/h (6 Bft) 97,87 %
05.10.2017 09:58 12,9 C 12,2 C 11,7 C 96 % 15 lf 1006,0 hPa 0,0 l/m 0 min 2 min 36 W/m 39,7 km/h (6 Bft) 95,65 %
05.10.2017 10:00 12,9 C 12,2 C 11,7 C 96 % 15 lf 1006,0 hPa 0,0 l/m 0 min 2 min 53 W/m 43,9 km/h (6 Bft) 94,00 %
05.10.2017 10:02 12,9 C 12,2 C 11,7 C 96 % 15 lf 1006,0 hPa 0,2 l/m 0 min 2 min 58 W/m 31,4 km/h (5 Bft) 97,22 %
05.10.2017 10:04 12,9 C 12,2 C 11,7 C 96 % 15 lf 1006,0 hPa 0,0 l/m 0 min 2 min 44 W/m 37,7 km/h (5 Bft) 95,74 %
05.10.2017 10:06 12,9 C 12,2 C 11,7 C 96 % 15 lf 1006,0 hPa 0,0 l/m 0 min 0 min 40 W/m 48,1 km/h (6 Bft) 95,74 %
05.10.2017 10:08 12,9 C 12,2 C 11,7 C 96 % 15 lf 1006,1 hPa 0,0 l/m 0 min 2 min 44 W/m 39,7 km/h (6 Bft) 92,73 %
05.10.2017 10:10 12,9 C 12,2 C 11,7 C 96 % 15 lf 1006,1 hPa 0,0 l/m 0 min 0 min 63 W/m 35,6 km/h (5 Bft) 93,88 %
05.10.2017 10:12 12,9 C 12,2 C 11,7 C 96 % 15 lf 1006,0 hPa 0,0 l/m 0 min 0 min 52 W/m 43,9 km/h (6 Bft) 91,67 %
05.10.2017 10:14 12,9 C 12,2 C 11,7 C 96 % 15 lf 1006,0 hPa 0,0 l/m 0 min 0 min 56 W/m 33,5 km/h (5 Bft) 91,49 %
05.10.2017 10:16 13,0 C 12,2 C 11,7 C 96 % 15 lf 1006,0 hPa 0,0 l/m 0 min 0 min 59 W/m 46,0 km/h (6 Bft) 94,55 %
05.10.2017 10:18 13,0 C 12,2 C 11,7 C 96 % 15 lf 1006,0 hPa 0,0 l/m 0 min 0 min 57 W/m 48,1 km/h (6 Bft) 90,00 %
05.10.2017 10:20 13,0 C 12,8 C 11,7 C 96 % 15 lf 1006,0 hPa 0,0 l/m 0 min 0 min 54 W/m 37,7 km/h (5 Bft) 86,96 %
05.10.2017 10:22 13,1 C 12,8 C 11,7 C 96 % 15 lf 1006,0 hPa 0,0 l/m 0 min 0 min 75 W/m 48,1 km/h (6 Bft) 88,89 %
05.10.2017 10:24 13,1 C 12,8 C 11,7 C 96 % 15 lf 1005,9 hPa 0,0 l/m 0 min 0 min 72 W/m 41,8 km/h (6 Bft) 89,36 %
05.10.2017 10:26 13,1 C 12,8 C 11,7 C 96 % 15 lf 1006,0 hPa 0,0 l/m 0 min 0 min 62 W/m 35,6 km/h (5 Bft) 91,49 %
05.10.2017 10:28 13,1 C 12,8 C 11,7 C 96 % 15 lf 1006,0 hPa 0,0 l/m 0 min 0 min 75 W/m 52,3 km/h (7 Bft) 94,55 %
05.10.2017 10:30 13,2 C 12,8 C 11,7 C 96 % 15 lf 1005,9 hPa 0,0 l/m 0 min 2 min 73 W/m 54,4 km/h (7 Bft) 95,74 %
05.10.2017 10:32 13,2 C 12,8 C 11,7 C 96 % 15 lf 1005,9 hPa 0,0 l/m 0 min 0 min 48 W/m 48,1 km/h (6 Bft) 95,92 %
05.10.2017 10:34 13,2 C 12,8 C 11,7 C 97 % 15 lf 1005,9 hPa 0,0 l/m 0 min 0 min 62 W/m 46,0 km/h (6 Bft) 91,67 %
05.10.2017 10:36 13,2 C 12,8 C 12,2 C 97 % 15 lf 1005,8 hPa 0,0 l/m 0 min 0 min 91 W/m 39,7 km/h (6 Bft) 95,74 %
05.10.2017 10:38 13,2 C 12,8 C 12,2 C 97 % 15 lf 1006,0 hPa 0,0 l/m 0 min 0 min 65 W/m 39,7 km/h (6 Bft) 95,74 %
05.10.2017 10:40 13,2 C 12,8 C 12,2 C 97 % 15 lf 1005,8 hPa 0,0 l/m 0 min 0 min 80 W/m 43,9 km/h (6 Bft) 95,74 %
05.10.2017 10:42 13,3 C 12,8 C 12,2 C 97 % 15 lf 1005,9 hPa 0,0 l/m 0 min 0 min 79 W/m 52,3 km/h (7 Bft) 94,55 %
05.10.2017 10:44 13,3 C 12,8 C 12,2 C 97 % 15 lf 1005,8 hPa 0,0 l/m 0 min 0 min 70 W/m 46,0 km/h (6 Bft) 95,74 %
05.10.2017 10:46 13,3 C 12,8 C 12,2 C 97 % 15 lf 1005,9 hPa 0,0 l/m 0 min 0 min 75 W/m 39,7 km/h (6 Bft) 97,96 %
05.10.2017 10:48 13,3 C 12,8 C 12,2 C 97 % 15 lf 1005,9 hPa 0,0 l/m 0 min 0 min 71 W/m 37,7 km/h (5 Bft) 95,74 %
05.10.2017 10:50 13,4 C 12,8 C 12,2 C 97 % 15 lf 1005,9 hPa 0,0 l/m 0 min 0 min 67 W/m 50,2 km/h (7 Bft) 97,92 %
05.10.2017 10:52 13,4 C 12,8 C 12,2 C 97 % 15 lf 1005,8 hPa 0,0 l/m 0 min 0 min 83 W/m 43,9 km/h (6 Bft) 97,14 %
05.10.2017 10:54 13,4 C 12,8 C 12,2 C 97 % 15 lf 1005,8 hPa 0,0 l/m 0 min 0 min 77 W/m 46,0 km/h (6 Bft) 95,65 %
05.10.2017 10:56 13,4 C 12,8 C 12,2 C 97 % 15 lf 1006,0 hPa 0,0 l/m 0 min 0 min 86 W/m 46,0 km/h (6 Bft) 96,36 %
05.10.2017 10:58 13,4 C 12,8 C 12,2 C 97 % 15 lf 1005,8 hPa 0,0 l/m 0 min 0 min 70 W/m 43,9 km/h (6 Bft) 100,00 %
05.10.2017 11:00 13,5 C 12,8 C 12,2 C 97 % 15 lf 1005,9 hPa 0,0 l/m 0 min 2 min 93 W/m 46,0 km/h (6 Bft) 97,22 %
05.10.2017 11:02 13,5 C 13,3 C 12,2 C 97 % 15 lf 1005,9 hPa 0,0 l/m 0 min 2 min 110 W/m 29,3 km/h (5 Bft) 100,00 %
05.10.2017 11:04 13,6 C 13,3 C 12,2 C 97 % 15 lf 1005,9 hPa 0,0 l/m 0 min 2 min 111 W/m 43,9 km/h (6 Bft) 100,00 %
05.10.2017 11:06 13,6 C 13,3 C 12,2 C 97 % 15 lf 1005,9 hPa 0,0 l/m 0 min 2 min 116 W/m 46,0 km/h (6 Bft) 95,74 %
05.10.2017 11:08 13,6 C 13,3 C 12,2 C 97 % 15 lf 1005,9 hPa 0,0 l/m 0 min 2 min 81 W/m 31,4 km/h (5 Bft) 97,96 %
05.10.2017 11:10 13,6 C 13,3 C 12,2 C 97 % 15 lf 1005,8 hPa 0,0 l/m 0 min 2 min 73 W/m 41,8 km/h (6 Bft) 98,00 %
05.10.2017 11:12 13,6 C 13,3 C 12,2 C 97 % 15 lf 1005,8 hPa 0,0 l/m 0 min 2 min 69 W/m 56,5 km/h (7 Bft) 100,00 %
05.10.2017 11:14 13,7 C 13,3 C 12,2 C 97 % 15 lf 1005,7 hPa 0,0 l/m 0 min 2 min 62 W/m 46,0 km/h (6 Bft) 100,00 %
05.10.2017 11:16 13,7 C 13,3 C 12,2 C 97 % 15 lf 1005,8 hPa 0,0 l/m 0 min 2 min 58 W/m 46,0 km/h (6 Bft) 97,22 %
05.10.2017 11:18 13,7 C 13,3 C 12,2 C 97 % 15 lf 1005,9 hPa 0,0 l/m 0 min 2 min 80 W/m 33,5 km/h (5 Bft) 97,83 %
05.10.2017 11:20 13,7 C 13,3 C 12,2 C 97 % 15 lf 1005,8 hPa 0,0 l/m 0 min 2 min 125 W/m 54,4 km/h (7 Bft) 98,15 %
05.10.2017 11:22 13,7 C 13,3 C 12,8 C 97 % 15 lf 1005,8 hPa 0,0 l/m 0 min 2 min 131 W/m 41,8 km/h (6 Bft) 97,83 %
05.10.2017 11:24 13,8 C 13,3 C 12,2 C 97 % 15 lf 1005,8 hPa 0,0 l/m 0 min 2 min 86 W/m 41,8 km/h (6 Bft) 95,74 %
05.10.2017 11:26 13,8 C 13,3 C 12,2 C 97 % 15 lf 1005,8 hPa 0,0 l/m 0 min 0 min 64 W/m 46,0 km/h (6 Bft) 98,00 %
05.10.2017 11:28 13,8 C 13,3 C 12,8 C 97 % 15 lf 1005,9 hPa 0,0 l/m 0 min 2 min 105 W/m 48,1 km/h (6 Bft) 93,62 %
05.10.2017 11:30 13,8 C 13,3 C 12,8 C 97 % 15 lf 1005,9 hPa 0,0 l/m 0 min 2 min 108 W/m 39,7 km/h (6 Bft) 97,96 %
05.10.2017 11:32 13,8 C 13,3 C 12,2 C 97 % 15 lf 1005,8 hPa 0,0 l/m 0 min 2 min 75 W/m 39,7 km/h (6 Bft) 97,14 %
05.10.2017 11:34 13,8 C 13,3 C 12,8 C 97 % 15 lf 1005,8 hPa 0,0 l/m 0 min 2 min 104 W/m 46,0 km/h (6 Bft) 95,74 %
05.10.2017 11:36 13,8 C 13,3 C 12,8 C 97 % 15 lf 1005,9 hPa 0,0 l/m 0 min 2 min 134 W/m 48,1 km/h (6 Bft) 94,34 %
05.10.2017 11:38 13,8 C 13,9 C 12,8 C 97 % 15 lf 1005,8 hPa 0,0 l/m 0 min 0 min 158 W/m 43,9 km/h (6 Bft) 98,00 %
05.10.2017 11:40 13,9 C 13,9 C 12,8 C 97 % 15 lf 1005,9 hPa 0,0 l/m 0 min 0 min 206 W/m 35,6 km/h (5 Bft) 97,87 %
05.10.2017 11:42 13,9 C 13,9 C 13,3 C 97 % 15 lf 1005,8 hPa 0,0 l/m 0 min 0 min 220 W/m 43,9 km/h (6 Bft) 95,74 %
05.10.2017 11:44 14,0 C 13,9 C 13,3 C 97 % 15 lf 1005,9 hPa 0,0 l/m 0 min 0 min 205 W/m 43,9 km/h (6 Bft) 95,65 %
05.10.2017 11:46 14,1 C 14,4 C 13,3 C 97 % 15 lf 1005,9 hPa 0,0 l/m 0 min 2 min 193 W/m 56,5 km/h (7 Bft) 95,74 %
05.10.2017 11:48 14,2 C 14,4 C 13,9 C 97 % 15 lf 1005,9 hPa 0,0 l/m 0 min 0 min 201 W/m 37,7 km/h (5 Bft) 97,87 %
05.10.2017 11:50 14,2 C 15,0 C 13,9 C 97 % 15 lf 1005,9 hPa 0,0 l/m 0 min 0 min 181 W/m 37,7 km/h (5 Bft) 97,87 %
05.10.2017 11:52 14,2 C 15,0 C 13,9 C 97 % 15 lf 1005,9 hPa 0,0 l/m 2 min 0 min 323 W/m 43,9 km/h (6 Bft) 95,74 %
05.10.2017 11:54 14,2 C 14,4 C 13,9 C 97 % 15 lf 1005,9 hPa 0,0 l/m 0 min 0 min 179 W/m 41,8 km/h (6 Bft) 95,74 %
05.10.2017 11:56 14,3 C 15,0 C 13,9 C 97 % 15 lf 1006,0 hPa 0,0 l/m 0 min 0 min 163 W/m 39,7 km/h (6 Bft) 93,48 %
05.10.2017 11:58 14,3 C 15,0 C 13,9 C 97 % 15 lf 1006,0 hPa 0,0 l/m 0 min 0 min 191 W/m 43,9 km/h (6 Bft) 91,49 %
05.10.2017 12:00 14,4 C 15,0 C 13,3 C 97 % 15 lf 1006,0 hPa 0,0 l/m 0 min 2 min 134 W/m 43,9 km/h (6 Bft) 93,62 %
05.10.2017 12:02 14,4 C 14,4 C 13,3 C 97 % 15 lf 1006,1 hPa 0,0 l/m 0 min 2 min 101 W/m 43,9 km/h (6 Bft) 95,74 %
05.10.2017 12:04 14,4 C 13,9 C 12,8 C 97 % 15 lf 1006,3 hPa 0,4 l/m 0 min 2 min 64 W/m 39,7 km/h (6 Bft) 95,74 %
05.10.2017 12:06 14,4 C 13,9 C 12,8 C 97 % 15 lf 1006,7 hPa 0,6 l/m 0 min 2 min 43 W/m 35,6 km/h (5 Bft) 95,74 %
05.10.2017 12:10 14,3 C 13,3 C 12,8 C 97 % 15 lf 1006,6 hPa 0,6 l/m 0 min 4 min 71 W/m 58,6 km/h (7 Bft) 97,62 %
05.10.2017 12:12 14,2 C 13,3 C 12,8 C 96 % 15 lf 1007,0 hPa 0,2 l/m 0 min 2 min 128 W/m 52,3 km/h (7 Bft) 97,87 %
05.10.2017 12:14 14,2 C 13,3 C 12,8 C 96 % 15 lf 1007,0 hPa 0,0 l/m 0 min 2 min 185 W/m 71,1 km/h (8 Bft) 97,87 %
05.10.2017 12:16 14,2 C 13,3 C 12,8 C 96 % 15 lf 1007,1 hPa 0,0 l/m 0 min 2 min 175 W/m 50,2 km/h (7 Bft) 95,65 %
05.10.2017 12:18 14,2 C 13,3 C 12,8 C 96 % 15 lf 1007,1 hPa 0,0 l/m 0 min 0 min 181 W/m 39,7 km/h (6 Bft) 91,49 %
05.10.2017 12:20 14,1 C 13,3 C 12,8 C 96 % 15 lf 1007,2 hPa 0,0 l/m 0 min 0 min 159 W/m 41,8 km/h (6 Bft) 96,61 %
05.10.2017 12:22 14,1 C 13,3 C 12,8 C 96 % 15 lf 1007,1 hPa 0,0 l/m 0 min 0 min 141 W/m 54,4 km/h (7 Bft) 97,14 %
05.10.2017 12:24 14,0 C 13,3 C 12,8 C 96 % 15 lf 1007,3 hPa 0,0 l/m 0 min 0 min 151 W/m 46,0 km/h (6 Bft) 97,87 %
05.10.2017 12:26 13,9 C 13,3 C 12,8 C 96 % 15 lf 1007,4 hPa 0,0 l/m 0 min 0 min 174 W/m 43,9 km/h (6 Bft) 95,74 %
05.10.2017 12:28 13,9 C 13,9 C 13,3 C 96 % 15 lf 1007,3 hPa 0,0 l/m 0 min 0 min 198 W/m 27,2 km/h (4 Bft) 100,00 %
05.10.2017 12:30 13,9 C 13,9 C 13,3 C 96 % 15 lf 1007,3 hPa 0,0 l/m 0 min 0 min 225 W/m 46,0 km/h (6 Bft) 100,00 %
05.10.2017 12:32 13,9 C 13,9 C 13,3 C 96 % 15 lf 1007,6 hPa 0,0 l/m 0 min 0 min 244 W/m 41,8 km/h (6 Bft) 97,87 %
05.10.2017 12:34 13,9 C 13,9 C 13,3 C 96 % 15 lf 1007,7 hPa 0,0 l/m 0 min 0 min 234 W/m 29,3 km/h (5 Bft) 100,00 %
05.10.2017 12:36 13,9 C 14,4 C 13,9 C 95 % 15 lf 1007,6 hPa 0,0 l/m 0 min 0 min 255 W/m 37,7 km/h (5 Bft) 95,74 %
05.10.2017 12:38 13,9 C 13,9 C 13,9 C 95 % 15 lf 1007,8 hPa 0,0 l/m 0 min 0 min 257 W/m 48,1 km/h (6 Bft) 97,87 %
05.10.2017 12:40 13,9 C 14,4 C 13,9 C 95 % 15 lf 1007,8 hPa 0,0 l/m 0 min 0 min 213 W/m 35,6 km/h (5 Bft) 100,00 %
05.10.2017 12:42 14,0 C 14,4 C 13,9 C 95 % 15 lf 1007,8 hPa 0,0 l/m 0 min 0 min 183 W/m 41,8 km/h (6 Bft) 100,00 %
05.10.2017 12:44 14,0 C 14,4 C 13,9 C 95 % 15 lf 1007,8 hPa 0,0 l/m 0 min 0 min 148 W/m 18,8 km/h (3 Bft) 100,00 %
05.10.2017 12:46 14,1 C 14,4 C 13,9 C 95 % 15 lf 1008,0 hPa 0,0 l/m 0 min 2 min 203 W/m 35,6 km/h (5 Bft) 100,00 %
05.10.2017 12:48 14,1 C 13,9 C 13,9 C 95 % 15 lf 1008,1 hPa 0,0 l/m 0 min 0 min 165 W/m 41,8 km/h (6 Bft) 100,00 %
05.10.2017 12:50 14,1 C 13,9 C 13,9 C 94 % 15 lf 1008,1 hPa 0,0 l/m 0 min 0 min 177 W/m 31,4 km/h (5 Bft) 100,00 %
05.10.2017 12:52 14,2 C 13,9 C 13,9 C 94 % 15 lf 1008,2 hPa 0,0 l/m 0 min 0 min 225 W/m 27,2 km/h (4 Bft) 100,00 %
05.10.2017 12:54 14,2 C 14,4 C 13,9 C 94 % 15 lf 1008,2 hPa 0,0 l/m 0 min 0 min 222 W/m 31,4 km/h (5 Bft) 100,00 %
05.10.2017 12:56 14,2 C 15,0 C 13,9 C 94 % 15 lf 1008,3 hPa 0,0 l/m 2 min 0 min 276 W/m 41,8 km/h (6 Bft) 97,87 %
05.10.2017 12:58 14,2 C 15,6 C 13,9 C 93 % 15 lf 1008,3 hPa 0,0 l/m 0 min 0 min 270 W/m 46,0 km/h (6 Bft) 93,62 %
05.10.2017 13:00 14,2 C 16,1 C 14,4 C 93 % 14 lf 1008,4 hPa 0,0 l/m 2 min 0 min 475 W/m 39,7 km/h (6 Bft) 95,74 %
05.10.2017 13:02 14,2 C 17,2 C 14,4 C 93 % 12 lf 1008,4 hPa 0,0 l/m 2 min 0 min 493 W/m 37,7 km/h (5 Bft) 97,87 %
05.10.2017 13:04 14,3 C 16,7 C 14,4 C 92 % 9 lf 1008,4 hPa 0,0 l/m 2 min 0 min 376 W/m 29,3 km/h (5 Bft) 95,65 %
05.10.2017 13:06 14,4 C 16,7 C 14,4 C 91 % 3 lf 1008,5 hPa 0,0 l/m 2 min 0 min 340 W/m 35,6 km/h (5 Bft) 97,87 %
05.10.2017 13:08 14,4 C 16,7 C 14,4 C 90 % 1 lf 1008,4 hPa 0,0 l/m 2 min 0 min 458 W/m 37,7 km/h (5 Bft) 95,74 %
05.10.2017 13:10 14,5 C 16,1 C 13,9 C 89 % 0 lf 1008,5 hPa 0,0 l/m 2 min 0 min 393 W/m 41,8 km/h (6 Bft) 95,74 %
05.10.2017 13:12 14,6 C 15,6 C 13,9 C 88 % 0 lf 1008,5 hPa 0,0 l/m 2 min 0 min 336 W/m 43,9 km/h (6 Bft) 95,74 %
05.10.2017 13:14 14,6 C 15,6 C 13,9 C 86 % 0 lf 1008,6 hPa 0,0 l/m 2 min 0 min 316 W/m 48,1 km/h (6 Bft) 95,65 %
05.10.2017 13:16 14,6 C 15,0 C 13,9 C 85 % 0 lf 1008,7 hPa 0,0 l/m 2 min 0 min 304 W/m 46,0 km/h (6 Bft) 95,74 %
05.10.2017 13:18 14,7 C 15,0 C 13,3 C 85 % 0 lf 1008,8 hPa 0,0 l/m 0 min 0 min 219 W/m 33,5 km/h (5 Bft) 93,62 %
05.10.2017 13:20 14,7 C 15,0 C 13,9 C 84 % 0 lf 1008,6 hPa 0,0 l/m 0 min 0 min 239 W/m 41,8 km/h (6 Bft) 95,74 %
05.10.2017 13:22 14,7 C 15,6 C 13,9 C 84 % 0 lf 1008,9 hPa 0,0 l/m 0 min 0 min 256 W/m 35,6 km/h (5 Bft) 95,74 %
05.10.2017 13:24 14,7 C 15,6 C 13,9 C 84 % 0 lf 1008,9 hPa 0,0 l/m 0 min 0 min 173 W/m 39,7 km/h (6 Bft) 95,74 %
05.10.2017 13:26 14,7 C 15,6 C 13,3 C 83 % 0 lf 1009,0 hPa 0,0 l/m 0 min 0 min 183 W/m 48,1 km/h (6 Bft) 91,30 %
05.10.2017 13:28 14,7 C 17,2 C 13,9 C 82 % 0 lf 1008,9 hPa 0,0 l/m 0 min 0 min 230 W/m 50,2 km/h (7 Bft) 93,62 %
05.10.2017 13:30 14,7 C 19,4 C 13,9 C 83 % 0 lf 1009,0 hPa 0,0 l/m 2 min 0 min 508 W/m 35,6 km/h (5 Bft) 95,74 %
05.10.2017 13:32 14,9 C 20,6 C 13,9 C 83 % 0 lf 1009,1 hPa 0,0 l/m 2 min 0 min 591 W/m 39,7 km/h (6 Bft) 93,62 %
05.10.2017 13:34 14,9 C 21,1 C 13,9 C 83 % 0 lf 1009,0 hPa 0,0 l/m 2 min 0 min 551 W/m 35,6 km/h (5 Bft) 95,74 %
05.10.2017 13:36 15,1 C 21,7 C 13,9 C 83 % 0 lf 1009,1 hPa 0,0 l/m 2 min 0 min 550 W/m 48,1 km/h (6 Bft) 93,62 %
05.10.2017 13:38 15,2 C 21,1 C 13,9 C 82 % 0 lf 1009,2 hPa 0,0 l/m 2 min 0 min 590 W/m 37,7 km/h (5 Bft) 93,48 %
05.10.2017 13:40 15,3 C 21,1 C 13,9 C 81 % 0 lf 1009,2 hPa 0,0 l/m 2 min 0 min 589 W/m 46,0 km/h (6 Bft) 91,49 %
05.10.2017 13:42 15,3 C 21,7 C 13,9 C 80 % 0 lf 1009,1 hPa 0,0 l/m 2 min 0 min 589 W/m 52,3 km/h (7 Bft) 97,87 %
05.10.2017 13:44 15,4 C 22,2 C 13,9 C 80 % 0 lf 1009,3 hPa 0,0 l/m 2 min 0 min 667 W/m 39,7 km/h (6 Bft) 95,74 %
05.10.2017 13:46 15,4 C 22,2 C 13,9 C 79 % 0 lf 1009,3 hPa 0,0 l/m 2 min 0 min 555 W/m 39,7 km/h (6 Bft) 95,74 %
05.10.2017 13:48 15,6 C 22,8 C 13,9 C 79 % 0 lf 1009,3 hPa 0,0 l/m 2 min 0 min 527 W/m 33,5 km/h (5 Bft) 93,62 %
05.10.2017 13:50 15,7 C 22,2 C 13,9 C 79 % 0 lf 1009,3 hPa 0,0 l/m 2 min 0 min 581 W/m 50,2 km/h (7 Bft) 98,28 %
05.10.2017 13:52 15,8 C 22,2 C 13,9 C 78 % 0 lf 1009,3 hPa 0,0 l/m 2 min 0 min 603 W/m 48,1 km/h (6 Bft) 94,29 %
05.10.2017 13:54 15,8 C 21,7 C 13,9 C 77 % 0 lf 1009,4 hPa 0,0 l/m 2 min 0 min 746 W/m 46,0 km/h (6 Bft) 95,74 %
05.10.2017 13:56 15,9 C 22,2 C 13,9 C 76 % 0 lf 1009,4 hPa 0,0 l/m 2 min 0 min 584 W/m 41,8 km/h (6 Bft) 97,87 %
05.10.2017 13:58 15,9 C 21,1 C 13,9 C 76 % 0 lf 1009,4 hPa 0,0 l/m 2 min 0 min 635 W/m 50,2 km/h (7 Bft) 97,87 %
05.10.2017 14:00 15,9 C 20,6 C 13,9 C 76 % 0 lf 1009,6 hPa 0,0 l/m 2 min 0 min 582 W/m 46,0 km/h (6 Bft) 93,62 %
05.10.2017 14:02 15,9 C 21,1 C 13,9 C 75 % 0 lf 1009,5 hPa 0,0 l/m 2 min 0 min 728 W/m 56,5 km/h (7 Bft) 95,65 %
05.10.2017 14:04 15,9 C 21,1 C 13,9 C 75 % 0 lf 1009,4 hPa 0,0 l/m 2 min 0 min 610 W/m 50,2 km/h (7 Bft) 97,87 %
05.10.2017 14:06 15,9 C 21,7 C 13,9 C 76 % 0 lf 1009,7 hPa 0,0 l/m 2 min 0 min 504 W/m 37,7 km/h (5 Bft) 97,87 %
05.10.2017 14:08 15,9 C 22,2 C 13,9 C 76 % 0 lf 1009,8 hPa 0,0 l/m 2 min 0 min 562 W/m 41,8 km/h (6 Bft) 93,62 %
05.10.2017 14:10 15,9 C 20,6 C 13,9 C 75 % 0 lf 1009,8 hPa 0,0 l/m 2 min 0 min 598 W/m 50,2 km/h (7 Bft) 93,62 %
05.10.2017 14:12 15,9 C 21,1 C 13,9 C 75 % 0 lf 1009,9 hPa 0,0 l/m 2 min 0 min 604 W/m 54,4 km/h (7 Bft) 95,74 %
05.10.2017 14:14 16,0 C 20,6 C 13,9 C 75 % 0 lf 1009,9 hPa 0,0 l/m 2 min 0 min 621 W/m 39,7 km/h (6 Bft) 95,65 %
05.10.2017 14:16 16,0 C 21,1 C 13,9 C 74 % 0 lf 1009,9 hPa 0,0 l/m 2 min 0 min 586 W/m 48,1 km/h (6 Bft) 95,74 %
05.10.2017 14:18 16,0 C 21,1 C 13,9 C 73 % 0 lf 1009,9 hPa 0,0 l/m 2 min 0 min 572 W/m 48,1 km/h (6 Bft) 91,49 %
05.10.2017 14:20 15,9 C 21,1 C 14,4 C 73 % 0 lf 1010,0 hPa 0,0 l/m 2 min 0 min 570 W/m 46,0 km/h (6 Bft) 93,22 %
05.10.2017 14:22 16,0 C 21,7 C 14,4 C 75 % 0 lf 1010,1 hPa 0,0 l/m 2 min 0 min 569 W/m 43,9 km/h (6 Bft) 94,29 %
05.10.2017 14:24 16,1 C 22,2 C 15,0 C 74 % 0 lf 1010,0 hPa 0,0 l/m 2 min 0 min 567 W/m 52,3 km/h (7 Bft) 95,74 %
05.10.2017 14:26 16,1 C 22,8 C 15,0 C 74 % 0 lf 1010,1 hPa 0,0 l/m 2 min 0 min 566 W/m 31,4 km/h (5 Bft) 97,83 %
05.10.2017 14:28 16,2 C 23,3 C 15,6 C 75 % 0 lf 1010,1 hPa 0,0 l/m 2 min 0 min 564 W/m 31,4 km/h (5 Bft) 95,74 %
05.10.2017 14:30 16,2 C 20,6 C 15,0 C 74 % 0 lf 1010,1 hPa 0,0 l/m 2 min 0 min 562 W/m 48,1 km/h (6 Bft) 95,74 %
05.10.2017 14:32 16,2 C 18,9 C 15,0 C 74 % 0 lf 1010,2 hPa 0,0 l/m 0 min 0 min 230 W/m 39,7 km/h (6 Bft) 93,62 %
05.10.2017 14:34 16,1 C 17,8 C 15,0 C 74 % 0 lf 1010,1 hPa 0,0 l/m 0 min 0 min 244 W/m 27,2 km/h (4 Bft) 93,62 %
05.10.2017 14:36 16,1 C 17,2 C 15,0 C 74 % 0 lf 1010,2 hPa 0,0 l/m 0 min 0 min 225 W/m 31,4 km/h (5 Bft) 93,62 %
05.10.2017 14:38 16,0 C 18,3 C 15,0 C 74 % 0 lf 1010,2 hPa 0,0 l/m 2 min 0 min 282 W/m 33,5 km/h (5 Bft) 96,23 %
05.10.2017 14:40 15,9 C 18,9 C 15,6 C 74 % 0 lf 1010,3 hPa 0,0 l/m 2 min 0 min 280 W/m 33,5 km/h (5 Bft) 95,65 %
05.10.2017 14:42 15,9 C 18,3 C 15,0 C 75 % 0 lf 1010,3 hPa 0,0 l/m 2 min 0 min 265 W/m 31,4 km/h (5 Bft) 96,00 %
05.10.2017 14:44 15,9 C 18,3 C 15,6 C 75 % 0 lf 1010,4 hPa 0,0 l/m 2 min 0 min 271 W/m 29,3 km/h (5 Bft) 92,00 %
05.10.2017 14:46 15,8 C 17,8 C 15,0 C 75 % 0 lf 1010,3 hPa 0,0 l/m 0 min 0 min 230 W/m 35,6 km/h (5 Bft) 100,00 %
05.10.2017 14:48 15,7 C 17,2 C 15,0 C 75 % 0 lf 1010,3 hPa 0,0 l/m 0 min 0 min 208 W/m 46,0 km/h (6 Bft) 97,83 %
05.10.2017 14:50 15,7 C 18,3 C 15,0 C 76 % 0 lf 1010,4 hPa 0,0 l/m 0 min 0 min 213 W/m 29,3 km/h (5 Bft) 94,44 %
05.10.2017 14:52 15,7 C 19,4 C 15,6 C 76 % 0 lf 1010,4 hPa 0,0 l/m 0 min 0 min 213 W/m 39,7 km/h (6 Bft) 95,65 %
05.10.2017 14:54 15,7 C 20,0 C 15,6 C 77 % 0 lf 1010,5 hPa 0,0 l/m 2 min 0 min 553 W/m 35,6 km/h (5 Bft) 93,62 %
05.10.2017 14:56 15,7 C 20,6 C 15,6 C 75 % 0 lf 1010,5 hPa 0,0 l/m 2 min 0 min 446 W/m 37,7 km/h (5 Bft) 95,74 %
05.10.2017 14:58 15,7 C 20,0 C 15,6 C 75 % 0 lf 1010,6 hPa 0,0 l/m 2 min 0 min 426 W/m 29,3 km/h (5 Bft) 98,00 %
05.10.2017 15:00 15,8 C 19,4 C 16,1 C 76 % 2 lf 1010,7 hPa 0,0 l/m 2 min 0 min 251 W/m 27,2 km/h (4 Bft) 97,96 %
05.10.2017 15:02 15,8 C 17,8 C 15,0 C 76 % 3 lf 1010,8 hPa 0,0 l/m 0 min 2 min 166 W/m 39,7 km/h (6 Bft) 94,29 %
05.10.2017 15:04 15,7 C 15,6 C 13,3 C 76 % 15 lf 1011,0 hPa 0,0 l/m 0 min 2 min 128 W/m 48,1 km/h (6 Bft) 98,11 %
05.10.2017 15:06 15,6 C 13,9 C 11,7 C 77 % 15 lf 1011,0 hPa 0,0 l/m 0 min 2 min 98 W/m 39,7 km/h (6 Bft) 98,00 %
05.10.2017 15:08 15,3 C 13,3 C 11,1 C 77 % 15 lf 1011,0 hPa 0,0 l/m 0 min 2 min 98 W/m 37,7 km/h (5 Bft) 100,00 %
05.10.2017 15:10 15,1 C 12,8 C 11,1 C 78 % 15 lf 1011,2 hPa 0,0 l/m 0 min 2 min 83 W/m 35,6 km/h (5 Bft) 100,00 %
05.10.2017 15:12 14,8 C 12,2 C 10,6 C 78 % 15 lf 1011,4 hPa 0,2 l/m 0 min 2 min 73 W/m 39,7 km/h (6 Bft) 100,00 %
05.10.2017 15:14 14,6 C 11,7 C 10,0 C 78 % 15 lf 1011,1 hPa 0,2 l/m 0 min 2 min 77 W/m 31,4 km/h (5 Bft) 97,87 %
05.10.2017 15:16 14,2 C 11,7 C 10,0 C 79 % 15 lf 1011,3 hPa 0,0 l/m 0 min 2 min 90 W/m 27,2 km/h (4 Bft) 98,11 %
05.10.2017 15:18 14,1 C 11,7 C 10,6 C 80 % 15 lf 1011,2 hPa 0,0 l/m 0 min 2 min 149 W/m 29,3 km/h (5 Bft) 100,00 %
05.10.2017 15:20 13,9 C 13,3 C 11,1 C 81 % 15 lf 1011,1 hPa 0,0 l/m 0 min 2 min 212 W/m 23,0 km/h (4 Bft) 100,00 %
05.10.2017 15:22 13,8 C 13,9 C 11,1 C 82 % 15 lf 1011,1 hPa 0,0 l/m 0 min 0 min 221 W/m 25,1 km/h (4 Bft) 100,00 %
05.10.2017 15:24 13,7 C 14,4 C 11,1 C 84 % 15 lf 1011,2 hPa 0,0 l/m 0 min 0 min 154 W/m 18,8 km/h (3 Bft) 100,00 %
05.10.2017 15:26 13,7 C 16,1 C 11,1 C 84 % 15 lf 1011,3 hPa 0,0 l/m 0 min 0 min 200 W/m 18,8 km/h (3 Bft) 95,74 %
05.10.2017 15:28 13,7 C 17,2 C 11,1 C 85 % 15 lf 1011,2 hPa 0,0 l/m 2 min 0 min 376 W/m 23,0 km/h (4 Bft) 100,00 %
05.10.2017 15:30 13,7 C 18,3 C 11,7 C 86 % 15 lf 1011,3 hPa 0,0 l/m 2 min 0 min 298 W/m 31,4 km/h (5 Bft) 98,11 %
05.10.2017 15:32 13,7 C 18,9 C 11,7 C 86 % 15 lf 1011,3 hPa 0,0 l/m 2 min 0 min 429 W/m 20,9 km/h (4 Bft) 100,00 %
05.10.2017 15:34 13,7 C 19,4 C 11,7 C 86 % 15 lf 1011,3 hPa 0,0 l/m 2 min 0 min 420 W/m 25,1 km/h (4 Bft) 96,00 %
05.10.2017 15:36 13,7 C 19,4 C 11,7 C 86 % 15 lf 1011,2 hPa 0,0 l/m 2 min 0 min 417 W/m 29,3 km/h (5 Bft) 94,44 %
05.10.2017 15:38 13,7 C 19,4 C 11,7 C 86 % 15 lf 1011,3 hPa 0,0 l/m 2 min 0 min 417 W/m 35,6 km/h (5 Bft) 98,28 %
05.10.2017 15:40 13,7 C 19,4 C 11,7 C 86 % 15 lf 1011,3 hPa 0,0 l/m 2 min 0 min 420 W/m 25,1 km/h (4 Bft) 97,22 %
05.10.2017 15:42 13,8 C 20,0 C 11,7 C 85 % 15 lf 1011,3 hPa 0,0 l/m 2 min 0 min 412 W/m 29,3 km/h (5 Bft) 95,74 %
05.10.2017 15:44 13,8 C 20,0 C 11,7 C 85 % 15 lf 1011,3 hPa 0,0 l/m 2 min 0 min 404 W/m 27,2 km/h (4 Bft) 91,49 %
05.10.2017 15:46 13,9 C 19,4 C 11,7 C 84 % 15 lf 1011,4 hPa 0,0 l/m 2 min 0 min 411 W/m 31,4 km/h (5 Bft) 96,36 %
05.10.2017 15:48 14,0 C 19,4 C 11,7 C 83 % 13 lf 1011,4 hPa 0,0 l/m 2 min 0 min 439 W/m 29,3 km/h (5 Bft) 98,00 %
05.10.2017 15:50 14,2 C 18,3 C 11,7 C 83 % 6 lf 1011,5 hPa 0,0 l/m 2 min 0 min 389 W/m 31,4 km/h (5 Bft) 93,62 %
05.10.2017 15:52 14,2 C 16,1 C 11,7 C 81 % 3 lf 1011,5 hPa 0,0 l/m 0 min 0 min 148 W/m 33,5 km/h (5 Bft) 100,00 %
05.10.2017 15:54 14,2 C 15,6 C 11,7 C 80 % 0 lf 1011,4 hPa 0,0 l/m 0 min 0 min 180 W/m 33,5 km/h (5 Bft) 95,74 %
05.10.2017 15:56 14,2 C 15,6 C 11,7 C 79 % 0 lf 1011,7 hPa 0,0 l/m 2 min 0 min 224 W/m 29,3 km/h (5 Bft) 97,87 %
05.10.2017 15:58 14,2 C 15,6 C 12,2 C 79 % 0 lf 1011,6 hPa 0,0 l/m 2 min 0 min 243 W/m 37,7 km/h (5 Bft) 97,87 %
05.10.2017 16:00 14,1 C 15,0 C 11,7 C 78 % 0 lf 1011,6 hPa 0,0 l/m 0 min 0 min 191 W/m 39,7 km/h (6 Bft) 94,55 %
05.10.2017 16:02 14,1 C 15,0 C 11,7 C 78 % 0 lf 1011,6 hPa 0,0 l/m 0 min 0 min 177 W/m 41,8 km/h (6 Bft) 95,92 %
05.10.2017 16:04 14,1 C 15,0 C 11,7 C 78 % 0 lf 1011,8 hPa 0,0 l/m 0 min 0 min 162 W/m 37,7 km/h (5 Bft) 95,74 %
05.10.2017 16:06 14,1 C 14,4 C 11,7 C 78 % 0 lf 1011,8 hPa 0,0 l/m 0 min 0 min 146 W/m 33,5 km/h (5 Bft) 91,67 %
05.10.2017 16:08 14,0 C 14,4 C 11,7 C 78 % 0 lf 1011,8 hPa 0,0 l/m 0 min 0 min 148 W/m 39,7 km/h (6 Bft) 95,74 %
05.10.2017 16:10 13,9 C 14,4 C 11,7 C 77 % 0 lf 1011,9 hPa 0,0 l/m 0 min 0 min 137 W/m 41,8 km/h (6 Bft) 95,65 %
05.10.2017 16:12 13,9 C 14,4 C 11,7 C 76 % 0 lf 1012,1 hPa 0,0 l/m 0 min 0 min 113 W/m 29,3 km/h (5 Bft) 89,29 %
05.10.2017 16:14 13,9 C 13,9 C 11,1 C 76 % 0 lf 1012,0 hPa 0,0 l/m 0 min 0 min 99 W/m 43,9 km/h (6 Bft) 95,92 %
05.10.2017 16:16 13,8 C 13,9 C 11,1 C 75 % 0 lf 1012,1 hPa 0,0 l/m 0 min 0 min 90 W/m 35,6 km/h (5 Bft) 95,74 %
05.10.2017 16:18 13,8 C 13,9 C 11,1 C 76 % 1 lf 1012,1 hPa 0,0 l/m 0 min 2 min 82 W/m 33,5 km/h (5 Bft) 94,44 %
05.10.2017 16:20 13,7 C 13,3 C 10,6 C 77 % 1 lf 1012,2 hPa 0,0 l/m 0 min 2 min 71 W/m 31,4 km/h (5 Bft) 94,23 %
05.10.2017 16:22 13,7 C 13,3 C 10,6 C 77 % 3 lf 1012,1 hPa 0,0 l/m 0 min 0 min 71 W/m 27,2 km/h (4 Bft) 94,00 %
05.10.2017 16:24 13,6 C 13,3 C 10,6 C 78 % 1 lf 1012,0 hPa 0,0 l/m 0 min 0 min 86 W/m 23,0 km/h (4 Bft) 97,96 %
05.10.2017 16:26 13,6 C 13,3 C 10,6 C 78 % 0 lf 1012,1 hPa 0,0 l/m 0 min 0 min 92 W/m 18,8 km/h (3 Bft) 94,44 %
05.10.2017 16:28 13,4 C 12,8 C 10,6 C 78 % 0 lf 1012,2 hPa 0,0 l/m 0 min 0 min 82 W/m 25,1 km/h (4 Bft) 93,62 %
05.10.2017 16:30 13,3 C 12,8 C 10,0 C 78 % 0 lf 1012,2 hPa 0,0 l/m 0 min 0 min 72 W/m 23,0 km/h (4 Bft) 95,74 %
05.10.2017 16:32 13,2 C 13,3 C 10,0 C 79 % 0 lf 1012,1 hPa 0,0 l/m 0 min 0 min 105 W/m 25,1 km/h (4 Bft) 92,73 %
05.10.2017 16:34 13,2 C 14,4 C 10,0 C 79 % 0 lf 1012,2 hPa 0,0 l/m 0 min 0 min 84 W/m 20,9 km/h (4 Bft) 98,00 %
05.10.2017 16:36 13,1 C 16,1 C 10,6 C 79 % 0 lf 1012,2 hPa 0,0 l/m 2 min 0 min 303 W/m 23,0 km/h (4 Bft) 95,65 %
05.10.2017 16:38 13,1 C 17,2 C 10,6 C 80 % 0 lf 1012,1 hPa 0,0 l/m 2 min 0 min 305 W/m 27,2 km/h (4 Bft) 94,44 %
05.10.2017 16:40 13,2 C 17,2 C 10,6 C 80 % 0 lf 1012,1 hPa 0,0 l/m 2 min 0 min 298 W/m 18,8 km/h (3 Bft) 93,62 %
05.10.2017 16:42 13,2 C 17,2 C 10,6 C 80 % 0 lf 1012,2 hPa 0,0 l/m 2 min 0 min 293 W/m 29,3 km/h (5 Bft) 93,62 %
05.10.2017 16:44 13,2 C 17,2 C 10,6 C 80 % 0 lf 1012,3 hPa 0,0 l/m 2 min 0 min 287 W/m 25,1 km/h (4 Bft) 96,36 %
05.10.2017 16:46 13,2 C 16,7 C 10,6 C 81 % 0 lf 1012,3 hPa 0,0 l/m 2 min 0 min 283 W/m 23,0 km/h (4 Bft) 96,00 %
05.10.2017 16:48 13,3 C 17,2 C 10,6 C 81 % 0 lf 1012,3 hPa 0,0 l/m 2 min 0 min 277 W/m 20,9 km/h (4 Bft) 94,29 %
05.10.2017 16:50 13,4 C 16,7 C 11,1 C 81 % 0 lf 1012,3 hPa 0,0 l/m 2 min 0 min 271 W/m 23,0 km/h (4 Bft) 95,74 %
05.10.2017 16:52 13,4 C 16,7 C 11,1 C 82 % 0 lf 1012,3 hPa 0,0 l/m 2 min 0 min 264 W/m 23,0 km/h (4 Bft) 91,49 %
05.10.2017 16:54 13,4 C 16,7 C 11,1 C 82 % 0 lf 1012,2 hPa 0,0 l/m 2 min 0 min 258 W/m 27,2 km/h (4 Bft) 96,36 %
05.10.2017 16:56 13,5 C 16,1 C 11,1 C 82 % 0 lf 1012,3 hPa 0,0 l/m 2 min 0 min 253 W/m 20,9 km/h (4 Bft) 98,00 %
05.10.2017 16:58 13,6 C 15,6 C 11,1 C 82 % 0 lf 1012,3 hPa 0,0 l/m 2 min 0 min 248 W/m 16,7 km/h (3 Bft) 95,74 %
05.10.2017 17:00 13,7 C 15,6 C 11,1 C 82 % 0 lf 1012,3 hPa 0,0 l/m 2 min 0 min 239 W/m 29,3 km/h (5 Bft) 100,00 %
05.10.2017 17:02 13,7 C 15,6 C 11,1 C 82 % 0 lf 1012,3 hPa 0,0 l/m 2 min 0 min 235 W/m 27,2 km/h (4 Bft) 97,87 %
05.10.2017 17:04 13,8 C 15,0 C 11,7 C 82 % 0 lf 1012,3 hPa 0,0 l/m 2 min 0 min 229 W/m 18,8 km/h (3 Bft) 94,55 %
05.10.2017 17:06 13,8 C 15,0 C 11,7 C 82 % 0 lf 1012,4 hPa 0,0 l/m 2 min 0 min 221 W/m 18,8 km/h (3 Bft) 98,00 %
05.10.2017 17:08 13,9 C 14,4 C 11,7 C 82 % 0 lf 1012,4 hPa 0,0 l/m 2 min 0 min 215 W/m 23,0 km/h (4 Bft) 97,87 %
05.10.2017 17:10 13,9 C 15,0 C 11,7 C 82 % 0 lf 1012,5 hPa 0,0 l/m 2 min 0 min 210 W/m 20,9 km/h (4 Bft) 100,00 %
05.10.2017 17:12 14,0 C 14,4 C 11,7 C 82 % 0 lf 1012,5 hPa 0,0 l/m 2 min 0 min 204 W/m 23,0 km/h (4 Bft) 97,87 %
05.10.2017 17:14 14,1 C 14,4 C 11,7 C 82 % 0 lf 1012,5 hPa 0,0 l/m 2 min 0 min 187 W/m 25,1 km/h (4 Bft) 100,00 %
05.10.2017 17:16 14,2 C 14,4 C 11,7 C 82 % 0 lf 1012,5 hPa 0,0 l/m 2 min 0 min 169 W/m 14,6 km/h (3 Bft) 95,74 %
05.10.2017 17:18 14,2 C 14,4 C 11,7 C 82 % 0 lf 1012,5 hPa 0,0 l/m 2 min 0 min 187 W/m 20,9 km/h (4 Bft) 100,00 %
05.10.2017 17:20 14,2 C 14,4 C 11,7 C 82 % 0 lf 1012,6 hPa 0,0 l/m 2 min 0 min 175 W/m 31,4 km/h (5 Bft) 100,00 %
05.10.2017 17:22 14,2 C 14,4 C 11,7 C 82 % 0 lf 1012,7 hPa 0,0 l/m 2 min 0 min 170 W/m 29,3 km/h (5 Bft) 97,87 %
05.10.2017 17:24 14,2 C 14,4 C 11,7 C 81 % 0 lf 1012,7 hPa 0,0 l/m 0 min 0 min 115 W/m 23,0 km/h (4 Bft) 95,92 %
05.10.2017 17:26 14,2 C 13,9 C 11,7 C 81 % 0 lf 1012,6 hPa 0,0 l/m 0 min 0 min 70 W/m 18,8 km/h (3 Bft) 97,22 %
05.10.2017 17:28 14,2 C 13,9 C 11,7 C 81 % 0 lf 1012,7 hPa 0,0 l/m 2 min 0 min 153 W/m 23,0 km/h (4 Bft) 97,87 %
05.10.2017 17:30 14,2 C 13,9 C 11,1 C 81 % 0 lf 1012,8 hPa 0,0 l/m 0 min 0 min 90 W/m 31,4 km/h (5 Bft) 96,36 %
05.10.2017 17:32 14,1 C 13,9 C 11,1 C 80 % 0 lf 1012,8 hPa 0,0 l/m 0 min 0 min 44 W/m 23,0 km/h (4 Bft) 95,74 %
05.10.2017 17:34 14,0 C 13,3 C 11,1 C 80 % 0 lf 1012,9 hPa 0,0 l/m 0 min 0 min 45 W/m 18,8 km/h (3 Bft) 93,88 %
05.10.2017 17:36 13,9 C 13,3 C 11,1 C 80 % 0 lf 1012,9 hPa 0,0 l/m 0 min 0 min 42 W/m 16,7 km/h (3 Bft) 100,00 %
05.10.2017 17:38 13,9 C 13,3 C 11,1 C 80 % 0 lf 1013,1 hPa 0,0 l/m 0 min 0 min 39 W/m 29,3 km/h (5 Bft) 95,74 %
05.10.2017 17:40 13,8 C 13,3 C 11,1 C 79 % 0 lf 1013,1 hPa 0,0 l/m 0 min 0 min 41 W/m 41,8 km/h (6 Bft) 96,36 %
05.10.2017 17:42 13,7 C 13,3 C 10,6 C 78 % 0 lf 1013,2 hPa 0,0 l/m 0 min 0 min 49 W/m 29,3 km/h (5 Bft) 95,74 %
05.10.2017 17:44 13,7 C 13,3 C 10,6 C 78 % 0 lf 1013,2 hPa 0,0 l/m 0 min 0 min 54 W/m 31,4 km/h (5 Bft) 97,87 %
05.10.2017 17:46 13,6 C 13,3 C 10,6 C 78 % 0 lf 1013,2 hPa 0,0 l/m 0 min 0 min 54 W/m 33,5 km/h (5 Bft) 95,65 %
05.10.2017 17:48 13,5 C 13,3 C 10,6 C 77 % 0 lf 1013,2 hPa 0,0 l/m 0 min 0 min 59 W/m 29,3 km/h (5 Bft) 97,87 %
05.10.2017 17:50 13,4 C 13,3 C 11,1 C 77 % 0 lf 1013,2 hPa 0,0 l/m 0 min 0 min 74 W/m 43,9 km/h (6 Bft) 98,00 %
05.10.2017 17:52 13,4 C 13,3 C 11,1 C 78 % 0 lf 1013,2 hPa 0,0 l/m 0 min 0 min 82 W/m 39,7 km/h (6 Bft) 97,87 %
05.10.2017 17:54 13,4 C 13,3 C 11,1 C 78 % 0 lf 1013,2 hPa 0,0 l/m 2 min 0 min 95 W/m 35,6 km/h (5 Bft) 97,22 %
05.10.2017 17:56 13,4 C 13,3 C 11,1 C 78 % 0 lf 1013,2 hPa 0,0 l/m 2 min 0 min 116 W/m 23,0 km/h (4 Bft) 97,83 %
05.10.2017 17:58 13,4 C 13,3 C 11,1 C 78 % 0 lf 1013,2 hPa 0,0 l/m 2 min 0 min 82 W/m 29,3 km/h (5 Bft) 93,62 %
05.10.2017 18:00 13,3 C 13,3 C 11,1 C 78 % 0 lf 1013,3 hPa 0,0 l/m 0 min 0 min 65 W/m 25,1 km/h (4 Bft) 97,87 %
05.10.2017 18:02 13,3 C 13,3 C 11,1 C 79 % 0 lf 1013,3 hPa 0,0 l/m 0 min 0 min 48 W/m 25,1 km/h (4 Bft) 95,74 %
05.10.2017 18:04 13,3 C 13,3 C 11,1 C 79 % 0 lf 1013,4 hPa 0,0 l/m 0 min 0 min 45 W/m 23,0 km/h (4 Bft) 97,87 %
05.10.2017 18:06 13,3 C 12,8 C 10,6 C 79 % 0 lf 1013,5 hPa 0,0 l/m 0 min 0 min 43 W/m 18,8 km/h (3 Bft) 97,87 %
05.10.2017 18:10 13,3 C 12,8 C 11,1 C 79 % 0 lf 1013,4 hPa 0,0 l/m 0 min 0 min 52 W/m 35,6 km/h (5 Bft) 97,09 %
05.10.2017 18:12 13,2 C 12,8 C 11,1 C 79 % 0 lf 1013,6 hPa 0,0 l/m 0 min 0 min 57 W/m 23,0 km/h (4 Bft) 94,59 %
05.10.2017 18:14 13,2 C 13,3 C 11,1 C 80 % 0 lf 1013,5 hPa 0,0 l/m 0 min 0 min 51 W/m 29,3 km/h (5 Bft) 94,83 %
05.10.2017 18:16 13,2 C 13,3 C 11,1 C 80 % 0 lf 1013,5 hPa 0,0 l/m 0 min 0 min 39 W/m 20,9 km/h (4 Bft) 91,67 %
05.10.2017 18:18 13,2 C 12,8 C 11,1 C 80 % 0 lf 1013,6 hPa 0,0 l/m 0 min 0 min 36 W/m 33,5 km/h (5 Bft) 97,87 %
05.10.2017 18:20 13,2 C 13,3 C 11,1 C 80 % 0 lf 1013,6 hPa 0,0 l/m 0 min 0 min 39 W/m 18,8 km/h (3 Bft) 92,31 %
05.10.2017 18:22 13,2 C 13,3 C 11,1 C 80 % 0 lf 1013,7 hPa 0,0 l/m 0 min 0 min 43 W/m 20,9 km/h (4 Bft) 93,88 %
05.10.2017 18:24 13,2 C 13,3 C 11,1 C 80 % 0 lf 1013,6 hPa 0,0 l/m 2 min 0 min 46 W/m 31,4 km/h (5 Bft) 95,74 %
05.10.2017 18:26 13,2 C 13,3 C 11,1 C 81 % 0 lf 1013,6 hPa 0,0 l/m 2 min 0 min 47 W/m 20,9 km/h (4 Bft) 92,00 %
05.10.2017 18:28 13,2 C 13,3 C 11,1 C 81 % 1 lf 1013,6 hPa 0,0 l/m 2 min 0 min 48 W/m 20,9 km/h (4 Bft) 100,00 %
05.10.2017 18:30 13,2 C 13,3 C 11,1 C 81 % 0 lf 1013,6 hPa 0,0 l/m 2 min 0 min 47 W/m 18,8 km/h (3 Bft) 93,62 %
05.10.2017 18:32 13,2 C 12,8 C 11,1 C 81 % 14 lf 1013,7 hPa 0,0 l/m 2 min 2 min 50 W/m 18,8 km/h (3 Bft) 96,36 %
05.10.2017 18:34 13,2 C 12,2 C 10,6 C 81 % 15 lf 1013,7 hPa 0,0 l/m 2 min 2 min 47 W/m 16,7 km/h (3 Bft) 93,88 %
05.10.2017 18:36 13,2 C 12,2 C 10,6 C 82 % 15 lf 1013,6 hPa 0,0 l/m 2 min 2 min 50 W/m 16,7 km/h (3 Bft) 97,87 %
05.10.2017 18:38 13,2 C 12,2 C 10,0 C 82 % 15 lf 1013,6 hPa 0,0 l/m 2 min 2 min 51 W/m 20,9 km/h (4 Bft) 97,22 %
05.10.2017 18:40 13,2 C 12,2 C 10,0 C 83 % 15 lf 1013,6 hPa 0,0 l/m 2 min 0 min 40 W/m 14,6 km/h (3 Bft) 95,74 %
05.10.2017 18:42 13,2 C 12,2 C 10,0 C 83 % 15 lf 1013,6 hPa 0,0 l/m 2 min 0 min 27 W/m 18,8 km/h (3 Bft) 98,18 %
05.10.2017 18:44 13,1 C 12,2 C 10,0 C 83 % 15 lf 1013,6 hPa 0,0 l/m 2 min 0 min 22 W/m 27,2 km/h (4 Bft) 93,88 %
05.10.2017 18:46 13,1 C 12,2 C 10,0 C 83 % 15 lf 1013,7 hPa 0,0 l/m 2 min 0 min 21 W/m 16,7 km/h (3 Bft) 100,00 %
05.10.2017 18:48 13,0 C 12,2 C 9,4 C 83 % 14 lf 1013,8 hPa 0,0 l/m 2 min 2 min 24 W/m 23,0 km/h (4 Bft) 89,36 %
05.10.2017 18:50 12,9 C 12,2 C 9,4 C 83 % 12 lf 1013,8 hPa 0,0 l/m 0 min 2 min 18 W/m 18,8 km/h (3 Bft) 96,36 %
05.10.2017 18:52 12,9 C 12,2 C 9,4 C 83 % 10 lf 1013,8 hPa 0,0 l/m 0 min 0 min 15 W/m 16,7 km/h (3 Bft) 95,74 %
05.10.2017 18:54 12,9 C 12,2 C 9,4 C 83 % 6 lf 1013,9 hPa 0,0 l/m 0 min 0 min 10 W/m 18,8 km/h (3 Bft) 95,74 %
05.10.2017 18:56 12,8 C 12,2 C 9,4 C 83 % 3 lf 1013,9 hPa 0,0 l/m 0 min 0 min 4 W/m 23,0 km/h (4 Bft) 93,62 %
05.10.2017 18:58 12,8 C 12,2 C 9,4 C 83 % 1 lf 1014,0 hPa 0,0 l/m 0 min 0 min 4 W/m 16,7 km/h (3 Bft) 95,92 %
05.10.2017 19:00 12,7 C 12,2 C 9,4 C 83 % 0 lf 1014,0 hPa 0,0 l/m 0 min 0 min 4 W/m 29,3 km/h (5 Bft) 93,62 %
05.10.2017 19:02 12,7 C 12,2 C 9,4 C 83 % 0 lf 1014,0 hPa 0,0 l/m 0 min 0 min 4 W/m 33,5 km/h (5 Bft) 97,22 %
05.10.2017 19:04 12,7 C 12,2 C 9,4 C 83 % 0 lf 1014,0 hPa 0,0 l/m 0 min 0 min 9 W/m 27,2 km/h (4 Bft) 95,74 %
05.10.2017 19:06 12,7 C 12,2 C 9,4 C 83 % 0 lf 1014,0 hPa 0,0 l/m 0 min 0 min 7 W/m 18,8 km/h (3 Bft) 96,36 %
05.10.2017 19:08 12,6 C 12,2 C 9,4 C 83 % 0 lf 1014,0 hPa 0,0 l/m 0 min 0 min 12 W/m 35,6 km/h (5 Bft) 95,92 %
05.10.2017 19:10 12,6 C 12,2 C 10,0 C 83 % 0 lf 1014,0 hPa 0,0 l/m 0 min 0 min 30 W/m 29,3 km/h (5 Bft) 95,74 %
05.10.2017 19:12 12,6 C 12,2 C 10,0 C 83 % 0 lf 1014,1 hPa 0,0 l/m 0 min 0 min 9 W/m 25,1 km/h (4 Bft) 91,67 %
05.10.2017 19:14 12,6 C 12,2 C 10,0 C 83 % 0 lf 1014,2 hPa 0,0 l/m 0 min 0 min 6 W/m 16,7 km/h (3 Bft) 95,74 %
05.10.2017 19:16 12,5 C 11,7 C 10,0 C 83 % 0 lf 1014,2 hPa 0,0 l/m 0 min 0 min 0 W/m 25,1 km/h (4 Bft) 96,36 %
05.10.2017 19:18 12,5 C 11,7 C 10,0 C 83 % 0 lf 1014,2 hPa 0,0 l/m 0 min 0 min 0 W/m 16,7 km/h (3 Bft) 96,00 %
05.10.2017 19:20 12,5 C 11,7 C 10,0 C 83 % 0 lf 1014,2 hPa 0,0 l/m 0 min 0 min 0 W/m 27,2 km/h (4 Bft) 97,87 %
05.10.2017 19:22 12,4 C 11,7 C 10,0 C 83 % 0 lf 1014,2 hPa 0,0 l/m 0 min 0 min 0 W/m 20,9 km/h (4 Bft) 97,14 %
05.10.2017 19:24 12,4 C 11,7 C 10,0 C 83 % 0 lf 1014,3 hPa 0,0 l/m 0 min 0 min 4 W/m 20,9 km/h (4 Bft) 93,62 %
05.10.2017 19:26 12,4 C 11,7 C 10,0 C 83 % 0 lf 1014,3 hPa 0,0 l/m 0 min 0 min 1 W/m 20,9 km/h (4 Bft) 98,18 %
05.10.2017 19:28 12,3 C 11,7 C 10,0 C 84 % 0 lf 1014,3 hPa 0,0 l/m 0 min 0 min 5 W/m 27,2 km/h (4 Bft) 98,00 %
05.10.2017 19:30 12,3 C 11,7 C 10,0 C 83 % 0 lf 1014,3 hPa 0,0 l/m 0 min 0 min 5 W/m 16,7 km/h (3 Bft) 97,14 %
05.10.2017 19:32 12,3 C 11,7 C 10,0 C 83 % 0 lf 1014,3 hPa 0,0 l/m 0 min 0 min 0 W/m 16,7 km/h (3 Bft) 95,74 %
05.10.2017 19:34 12,3 C 11,7 C 10,0 C 83 % 0 lf 1014,4 hPa 0,0 l/m 0 min 0 min 0 W/m 14,6 km/h (3 Bft) 96,36 %
05.10.2017 19:36 12,2 C 11,1 C 10,0 C 83 % 0 lf 1014,5 hPa 0,0 l/m 0 min 0 min 2 W/m 14,6 km/h (3 Bft) 96,00 %
05.10.2017 19:38 12,2 C 11,1 C 9,4 C 84 % 0 lf 1014,5 hPa 0,0 l/m 0 min 0 min 0 W/m 16,7 km/h (3 Bft) 97,87 %
05.10.2017 19:40 12,2 C 11,1 C 9,4 C 84 % 0 lf 1014,5 hPa 0,0 l/m 0 min 0 min 0 W/m 14,6 km/h (3 Bft) 93,62 %
05.10.2017 19:42 12,1 C 11,1 C 9,4 C 84 % 0 lf 1014,5 hPa 0,0 l/m 0 min 0 min 0 W/m 18,8 km/h (3 Bft) 97,73 %
05.10.2017 19:44 12,1 C 11,1 C 9,4 C 84 % 0 lf 1014,6 hPa 0,0 l/m 0 min 0 min 0 W/m 20,9 km/h (4 Bft) 95,65 %
05.10.2017 19:46 12,1 C 11,1 C 9,4 C 84 % 0 lf 1014,6 hPa 0,0 l/m 0 min 0 min 0 W/m 20,9 km/h (4 Bft) 95,74 %
05.10.2017 19:48 12,0 C 11,1 C 9,4 C 84 % 0 lf 1014,6 hPa 0,0 l/m 0 min 0 min 4 W/m 23,0 km/h (4 Bft) 95,74 %
05.10.2017 19:50 12,0 C 11,1 C 9,4 C 84 % 0 lf 1014,7 hPa 0,0 l/m 0 min 0 min 5 W/m 18,8 km/h (3 Bft) 97,87 %
05.10.2017 19:52 11,9 C 11,1 C 9,4 C 84 % 0 lf 1014,7 hPa 0,0 l/m 0 min 0 min 5 W/m 23,0 km/h (4 Bft) 95,74 %
05.10.2017 19:54 11,9 C 11,1 C 9,4 C 84 % 0 lf 1014,7 hPa 0,0 l/m 0 min 0 min 5 W/m 31,4 km/h (5 Bft) 97,87 %
05.10.2017 19:56 11,9 C 11,1 C 10,0 C 84 % 0 lf 1014,7 hPa 0,0 l/m 0 min 0 min 2 W/m 31,4 km/h (5 Bft) 97,83 %
05.10.2017 19:58 11,8 C 11,1 C 10,0 C 84 % 0 lf 1014,7 hPa 0,0 l/m 0 min 0 min 4 W/m 18,8 km/h (3 Bft) 97,87 %
05.10.2017 20:00 11,8 C 11,1 C 10,0 C 84 % 0 lf 1014,7 hPa 0,0 l/m 0 min 0 min 0 W/m 20,9 km/h (4 Bft) 97,87 %
05.10.2017 20:02 11,8 C 11,1 C 9,4 C 84 % 0 lf 1014,7 hPa 0,0 l/m 0 min 0 min 0 W/m 12,6 km/h (3 Bft) 97,87 %
05.10.2017 20:04 11,8 C 11,1 C 9,4 C 84 % 0 lf 1014,8 hPa 0,0 l/m 0 min 0 min 0 W/m 14,6 km/h (3 Bft) 93,62 %
05.10.2017 20:06 11,7 C 11,1 C 9,4 C 84 % 0 lf 1014,8 hPa 0,0 l/m 0 min 0 min 0 W/m 18,8 km/h (3 Bft) 97,87 %
05.10.2017 20:08 11,7 C 11,1 C 9,4 C 84 % 0 lf 1014,9 hPa 0,0 l/m 0 min 0 min 0 W/m 16,7 km/h (3 Bft) 97,83 %
05.10.2017 20:10 11,7 C 11,1 C 9,4 C 84 % 0 lf 1014,9 hPa 0,0 l/m 0 min 0 min 0 W/m 16,7 km/h (3 Bft) 97,87 %
05.10.2017 20:12 11,7 C 10,6 C 9,4 C 84 % 0 lf 1014,9 hPa 0,0 l/m 0 min 0 min 0 W/m 10,5 km/h (2 Bft) 92,31 %
05.10.2017 20:14 11,7 C 10,6 C 9,4 C 84 % 0 lf 1014,8 hPa 0,0 l/m 0 min 0 min 0 W/m 12,6 km/h (3 Bft) 97,87 %
05.10.2017 20:16 11,6 C 10,6 C 9,4 C 84 % 0 lf 1014,9 hPa 0,0 l/m 0 min 0 min 0 W/m 16,7 km/h (3 Bft) 100,00 %
05.10.2017 20:18 11,6 C 10,6 C 9,4 C 84 % 0 lf 1014,9 hPa 0,0 l/m 0 min 0 min 0 W/m 14,6 km/h (3 Bft) 97,87 %
05.10.2017 20:20 11,6 C 10,6 C 8,9 C 84 % 0 lf 1014,9 hPa 0,0 l/m 0 min 0 min 0 W/m 14,6 km/h (3 Bft) 100,00 %
05.10.2017 20:22 11,5 C 10,6 C 8,9 C 84 % 0 lf 1015,0 hPa 0,0 l/m 0 min 0 min 2 W/m 14,6 km/h (3 Bft) 95,74 %
05.10.2017 20:24 11,5 C 10,6 C 8,9 C 84 % 0 lf 1015,0 hPa 0,0 l/m 0 min 0 min 5 W/m 12,6 km/h (3 Bft) 97,87 %
05.10.2017 20:26 11,5 C 10,6 C 9,4 C 85 % 0 lf 1015,1 hPa 0,0 l/m 0 min 0 min 5 W/m 16,7 km/h (3 Bft) 97,87 %
05.10.2017 20:28 11,4 C 10,6 C 8,9 C 85 % 0 lf 1015,0 hPa 0,0 l/m 0 min 0 min 0 W/m 14,6 km/h (3 Bft) 95,65 %
05.10.2017 20:30 11,4 C 10,6 C 8,9 C 85 % 0 lf 1015,1 hPa 0,0 l/m 0 min 0 min 1 W/m 14,6 km/h (3 Bft) 95,74 %
05.10.2017 20:32 11,4 C 10,6 C 8,9 C 85 % 0 lf 1015,1 hPa 0,0 l/m 0 min 0 min 5 W/m 8,4 km/h (2 Bft) 95,74 %
05.10.2017 20:34 11,3 C 10,6 C 8,9 C 85 % 0 lf 1015,1 hPa 0,0 l/m 0 min 0 min 1 W/m 14,6 km/h (3 Bft) 95,74 %
05.10.2017 20:36 11,3 C 10,6 C 8,9 C 85 % 0 lf 1015,1 hPa 0,0 l/m 0 min 0 min 0 W/m 14,6 km/h (3 Bft) 93,62 %
05.10.2017 20:38 11,3 C 10,6 C 8,9 C 85 % 0 lf 1015,1 hPa 0,0 l/m 0 min 0 min 0 W/m 16,7 km/h (3 Bft) 95,74 %
05.10.2017 20:40 11,3 C 10,6 C 8,9 C 85 % 0 lf 1015,1 hPa 0,0 l/m 0 min 0 min 0 W/m 12,6 km/h (3 Bft) 97,83 %
05.10.2017 20:42 11,3 C 10,6 C 8,9 C 86 % 0 lf 1015,2 hPa 0,0 l/m 0 min 0 min 0 W/m 14,6 km/h (3 Bft) 97,87 %
05.10.2017 20:44 11,2 C 10,6 C 9,4 C 86 % 0 lf 1015,1 hPa 0,0 l/m 0 min 0 min 0 W/m 14,6 km/h (3 Bft) 95,74 %
05.10.2017 20:46 11,2 C 10,6 C 9,4 C 86 % 0 lf 1015,1 hPa 0,0 l/m 0 min 0 min 2 W/m 14,6 km/h (3 Bft) 95,74 %
05.10.2017 20:48 11,2 C 10,6 C 9,4 C 86 % 0 lf 1015,1 hPa 0,0 l/m 0 min 0 min 5 W/m 10,5 km/h (2 Bft) 93,62 %
05.10.2017 20:50 11,2 C 10,6 C 9,4 C 86 % 0 lf 1015,1 hPa 0,0 l/m 0 min 0 min 5 W/m 18,8 km/h (3 Bft) 95,74 %
05.10.2017 20:52 11,2 C 10,6 C 9,4 C 86 % 0 lf 1015,2 hPa 0,0 l/m 0 min 0 min 5 W/m 20,9 km/h (4 Bft) 95,65 %
05.10.2017 20:54 11,2 C 10,6 C 9,4 C 87 % 0 lf 1015,2 hPa 0,0 l/m 0 min 0 min 5 W/m 16,7 km/h (3 Bft) 93,62 %
05.10.2017 20:56 11,2 C 10,6 C 9,4 C 87 % 0 lf 1015,2 hPa 0,0 l/m 0 min 0 min 5 W/m 18,8 km/h (3 Bft) 95,74 %
05.10.2017 20:58 11,2 C 10,6 C 9,4 C 87 % 0 lf 1015,3 hPa 0,0 l/m 0 min 0 min 5 W/m 14,6 km/h (3 Bft) 95,74 %
05.10.2017 21:00 11,1 C 10,6 C 9,4 C 87 % 0 lf 1015,3 hPa 0,0 l/m 0 min 0 min 5 W/m 20,9 km/h (4 Bft) 95,74 %
05.10.2017 21:02 11,1 C 10,6 C 9,4 C 87 % 0 lf 1015,3 hPa 0,0 l/m 0 min 0 min 5 W/m 14,6 km/h (3 Bft) 93,62 %
05.10.2017 21:04 11,1 C 10,6 C 8,9 C 87 % 0 lf 1015,3 hPa 0,0 l/m 0 min 0 min 5 W/m 14,6 km/h (3 Bft) 95,65 %
05.10.2017 21:06 11,1 C 10,6 C 8,9 C 87 % 0 lf 1015,3 hPa 0,0 l/m 0 min 0 min 4 W/m 12,6 km/h (3 Bft) 95,74 %
05.10.2017 21:08 11,1 C 10,6 C 8,9 C 87 % 0 lf 1015,4 hPa 0,0 l/m 0 min 0 min 0 W/m 14,6 km/h (3 Bft) 97,87 %
05.10.2017 21:10 11,1 C 10,6 C 9,4 C 87 % 0 lf 1015,4 hPa 0,0 l/m 0 min 0 min 0 W/m 16,7 km/h (3 Bft) 97,87 %
05.10.2017 21:12 11,1 C 10,6 C 9,4 C 87 % 0 lf 1015,3 hPa 0,0 l/m 0 min 0 min 0 W/m 23,0 km/h (4 Bft) 95,74 %
05.10.2017 21:14 11,1 C 10,6 C 9,4 C 87 % 0 lf 1015,4 hPa 0,0 l/m 0 min 0 min 0 W/m 14,6 km/h (3 Bft) 97,83 %
05.10.2017 21:16 11,1 C 10,6 C 8,9 C 87 % 0 lf 1015,4 hPa 0,0 l/m 0 min 0 min 0 W/m 8,4 km/h (2 Bft) 97,87 %
05.10.2017 21:18 11,0 C 10,0 C 8,9 C 87 % 0 lf 1015,4 hPa 0,0 l/m 0 min 0 min 0 W/m 16,7 km/h (3 Bft) 97,87 %
05.10.2017 21:20 11,0 C 10,0 C 8,9 C 87 % 0 lf 1015,5 hPa 0,0 l/m 0 min 0 min 0 W/m 23,0 km/h (4 Bft) 98,31 %
05.10.2017 21:22 11,0 C 10,0 C 8,9 C 87 % 0 lf 1015,5 hPa 0,0 l/m 0 min 0 min 0 W/m 20,9 km/h (4 Bft) 100,00 %
05.10.2017 21:24 10,9 C 10,0 C 8,9 C 87 % 0 lf 1015,5 hPa 0,0 l/m 0 min 0 min 0 W/m 14,6 km/h (3 Bft) 91,49 %
05.10.2017 21:26 10,9 C 10,0 C 8,9 C 87 % 0 lf 1015,5 hPa 0,0 l/m 0 min 0 min 0 W/m 16,7 km/h (3 Bft) 97,83 %
05.10.2017 21:28 10,9 C 10,0 C 8,9 C 87 % 0 lf 1015,5 hPa 0,0 l/m 0 min 0 min 0 W/m 14,6 km/h (3 Bft) 95,74 %
05.10.2017 21:30 10,9 C 10,0 C 8,9 C 87 % 0 lf 1015,6 hPa 0,0 l/m 0 min 0 min 0 W/m 23,0 km/h (4 Bft) 97,87 %
05.10.2017 21:32 10,9 C 10,6 C 8,9 C 87 % 0 lf 1015,5 hPa 0,0 l/m 0 min 0 min 0 W/m 16,7 km/h (3 Bft) 97,87 %
05.10.2017 21:34 10,9 C 10,6 C 8,9 C 87 % 0 lf 1015,6 hPa 0,0 l/m 0 min 0 min 0 W/m 20,9 km/h (4 Bft) 97,87 %
05.10.2017 21:36 10,9 C 10,0 C 8,9 C 87 % 0 lf 1015,6 hPa 0,0 l/m 0 min 0 min 0 W/m 12,6 km/h (3 Bft) 95,74 %
05.10.2017 21:38 10,9 C 10,0 C 8,9 C 87 % 0 lf 1015,6 hPa 0,0 l/m 0 min 0 min 2 W/m 12,6 km/h (3 Bft) 97,83 %
05.10.2017 21:40 10,8 C 10,0 C 8,9 C 87 % 0 lf 1015,6 hPa 0,0 l/m 0 min 0 min 5 W/m 16,7 km/h (3 Bft) 97,87 %
05.10.2017 21:42 10,8 C 10,0 C 8,9 C 87 % 0 lf 1015,6 hPa 0,0 l/m 0 min 0 min 2 W/m 16,7 km/h (3 Bft) 95,74 %
05.10.2017 21:44 10,8 C 10,0 C 8,9 C 87 % 0 lf 1015,7 hPa 0,0 l/m 0 min 0 min 1 W/m 12,6 km/h (3 Bft) 97,87 %
05.10.2017 21:46 10,8 C 10,0 C 8,9 C 87 % 0 lf 1015,7 hPa 0,0 l/m 0 min 0 min 5 W/m 14,6 km/h (3 Bft) 95,74 %
05.10.2017 21:48 10,8 C 10,0 C 8,9 C 87 % 0 lf 1015,7 hPa 0,0 l/m 0 min 0 min 0 W/m 12,6 km/h (3 Bft) 95,74 %
05.10.2017 21:50 10,8 C 10,0 C 8,9 C 87 % 0 lf 1015,7 hPa 0,0 l/m 0 min 0 min 0 W/m 20,9 km/h (4 Bft) 97,83 %
05.10.2017 21:52 10,7 C 10,0 C 8,9 C 88 % 0 lf 1015,7 hPa 0,0 l/m 0 min 0 min 3 W/m 12,6 km/h (3 Bft) 95,74 %
05.10.2017 21:54 10,7 C 10,0 C 8,3 C 88 % 0 lf 1015,7 hPa 0,0 l/m 0 min 0 min 5 W/m 12,6 km/h (3 Bft) 97,87 %
05.10.2017 21:56 10,7 C 10,0 C 8,3 C 88 % 0 lf 1015,7 hPa 0,0 l/m 0 min 0 min 0 W/m 20,9 km/h (4 Bft) 89,36 %
05.10.2017 21:58 10,7 C 10,0 C 8,3 C 88 % 0 lf 1015,7 hPa 0,0 l/m 0 min 0 min 5 W/m 10,5 km/h (2 Bft) 95,74 %
05.10.2017 22:00 10,7 C 10,0 C 8,3 C 88 % 0 lf 1015,7 hPa 0,0 l/m 0 min 0 min 5 W/m 18,8 km/h (3 Bft) 97,87 %
05.10.2017 22:02 10,6 C 10,0 C 8,3 C 88 % 0 lf 1015,7 hPa 0,0 l/m 0 min 0 min 5 W/m 10,5 km/h (2 Bft) 97,83 %
05.10.2017 22:04 10,6 C 10,0 C 8,3 C 88 % 0 lf 1015,7 hPa 0,0 l/m 0 min 0 min 5 W/m 16,7 km/h (3 Bft) 97,87 %
05.10.2017 22:06 10,6 C 10,0 C 8,3 C 88 % 0 lf 1015,8 hPa 0,0 l/m 0 min 0 min 0 W/m 12,6 km/h (3 Bft) 100,00 %
05.10.2017 22:08 10,6 C 10,0 C 8,3 C 88 % 0 lf 1015,7 hPa 0,0 l/m 0 min 0 min 0 W/m 14,6 km/h (3 Bft) 100,00 %
05.10.2017 22:10 10,6 C 9,4 C 8,3 C 88 % 0 lf 1015,8 hPa 0,0 l/m 0 min 0 min 5 W/m 8,4 km/h (2 Bft) 100,00 %
05.10.2017 22:12 10,5 C 9,4 C 8,3 C 88 % 0 lf 1015,8 hPa 0,0 l/m 0 min 0 min 0 W/m 16,7 km/h (3 Bft) 100,00 %
05.10.2017 22:14 10,5 C 9,4 C 8,3 C 88 % 0 lf 1015,7 hPa 0,0 l/m 0 min 0 min 0 W/m 14,6 km/h (3 Bft) 95,65 %
05.10.2017 22:16 10,4 C 9,4 C 8,3 C 88 % 0 lf 1015,8 hPa 0,0 l/m 0 min 0 min 5 W/m 14,6 km/h (3 Bft) 97,87 %
05.10.2017 22:18 10,4 C 10,0 C 8,3 C 88 % 0 lf 1015,8 hPa 0,0 l/m 0 min 0 min 5 W/m 14,6 km/h (3 Bft) 97,87 %
05.10.2017 22:20 10,4 C 9,4 C 8,3 C 88 % 0 lf 1015,8 hPa 0,0 l/m 0 min 0 min 0 W/m 18,8 km/h (3 Bft) 100,00 %
05.10.2017 22:22 10,4 C 9,4 C 8,3 C 88 % 0 lf 1015,8 hPa 0,0 l/m 0 min 0 min 0 W/m 14,6 km/h (3 Bft) 100,00 %
05.10.2017 22:24 10,4 C 9,4 C 8,3 C 88 % 0 lf 1015,8 hPa 0,0 l/m 0 min 0 min 0 W/m 14,6 km/h (3 Bft) 97,87 %
05.10.2017 22:26 10,4 C 9,4 C 8,3 C 88 % 0 lf 1015,8 hPa 0,0 l/m 0 min 0 min 0 W/m 23,0 km/h (4 Bft) 100,00 %
05.10.2017 22:28 10,3 C 9,4 C 8,3 C 88 % 0 lf 1015,9 hPa 0,0 l/m 0 min 0 min 0 W/m 16,7 km/h (3 Bft) 100,00 %
05.10.2017 22:30 10,3 C 10,0 C 8,9 C 88 % 0 lf 1015,9 hPa 0,0 l/m 0 min 0 min 0 W/m 12,6 km/h (3 Bft) 100,00 %
05.10.2017 22:32 10,3 C 10,0 C 8,9 C 88 % 0 lf 1015,9 hPa 0,0 l/m 0 min 0 min 5 W/m 14,6 km/h (3 Bft) 97,87 %
05.10.2017 22:34 10,3 C 10,0 C 8,9 C 89 % 0 lf 1015,9 hPa 0,0 l/m 0 min 0 min 0 W/m 18,8 km/h (3 Bft) 95,74 %
05.10.2017 22:36 10,3 C 10,0 C 8,9 C 88 % 0 lf 1015,8 hPa 0,0 l/m 0 min 0 min 0 W/m 18,8 km/h (3 Bft) 97,87 %
05.10.2017 22:38 10,3 C 10,0 C 8,9 C 89 % 0 lf 1015,8 hPa 0,0 l/m 0 min 0 min 5 W/m 18,8 km/h (3 Bft) 95,65 %
05.10.2017 22:40 10,3 C 10,0 C 8,9 C 89 % 0 lf 1015,9 hPa 0,0 l/m 0 min 0 min 5 W/m 18,8 km/h (3 Bft) 97,87 %
05.10.2017 22:42 10,3 C 10,0 C 8,9 C 89 % 0 lf 1015,9 hPa 0,0 l/m 0 min 0 min 0 W/m 12,6 km/h (3 Bft) 97,87 %
05.10.2017 22:44 10,3 C 10,0 C 8,9 C 89 % 0 lf 1015,8 hPa 0,0 l/m 0 min 0 min 0 W/m 10,5 km/h (2 Bft) 97,87 %
05.10.2017 22:46 10,3 C 10,0 C 8,9 C 89 % 0 lf 1015,8 hPa 0,0 l/m 0 min 0 min 5 W/m 12,6 km/h (3 Bft) 91,49 %
05.10.2017 22:48 10,4 C 10,0 C 8,9 C 89 % 0 lf 1015,8 hPa 0,0 l/m 0 min 0 min 0 W/m 16,7 km/h (3 Bft) 95,65 %
05.10.2017 22:50 10,4 C 10,0 C 8,9 C 89 % 0 lf 1015,8 hPa 0,0 l/m 0 min 0 min 0 W/m 23,0 km/h (4 Bft) 96,61 %
05.10.2017 22:52 10,4 C 10,0 C 8,9 C 89 % 0 lf 1015,8 hPa 0,0 l/m 0 min 0 min 0 W/m 14,6 km/h (3 Bft) 97,14 %
05.10.2017 22:54 10,4 C 10,0 C 8,9 C 89 % 0 lf 1015,8 hPa 0,0 l/m 0 min 0 min 0 W/m 14,6 km/h (3 Bft) 97,87 %
05.10.2017 22:56 10,4 C 10,0 C 8,9 C 89 % 0 lf 1015,8 hPa 0,0 l/m 0 min 0 min 0 W/m 14,6 km/h (3 Bft) 95,74 %
05.10.2017 22:58 10,4 C 10,0 C 8,9 C 89 % 0 lf 1015,8 hPa 0,0 l/m 0 min 0 min 0 W/m 14,6 km/h (3 Bft) 95,74 %
05.10.2017 23:00 10,4 C 10,0 C 8,9 C 89 % 0 lf 1015,8 hPa 0,0 l/m 0 min 0 min 5 W/m 14,6 km/h (3 Bft) 97,83 %
05.10.2017 23:02 10,4 C 10,0 C 8,9 C 89 % 0 lf 1015,8 hPa 0,0 l/m 0 min 0 min 5 W/m 16,7 km/h (3 Bft) 97,87 %
05.10.2017 23:04 10,4 C 10,0 C 8,9 C 89 % 0 lf 1015,8 hPa 0,0 l/m 0 min 0 min 5 W/m 16,7 km/h (3 Bft) 97,87 %
05.10.2017 23:06 10,4 C 10,0 C 8,9 C 88 % 0 lf 1015,8 hPa 0,0 l/m 0 min 0 min 5 W/m 16,7 km/h (3 Bft) 97,87 %
05.10.2017 23:08 10,3 C 10,0 C 8,3 C 88 % 0 lf 1015,8 hPa 0,0 l/m 0 min 0 min 5 W/m 14,6 km/h (3 Bft) 95,74 %
05.10.2017 23:10 10,3 C 9,4 C 8,3 C 88 % 0 lf 1015,8 hPa 0,0 l/m 0 min 0 min 5 W/m 10,5 km/h (2 Bft) 95,74 %
05.10.2017 23:12 10,3 C 10,0 C 8,3 C 88 % 0 lf 1015,9 hPa 0,0 l/m 0 min 0 min 5 W/m 14,6 km/h (3 Bft) 97,83 %
05.10.2017 23:14 10,3 C 9,4 C 8,3 C 88 % 0 lf 1015,8 hPa 0,0 l/m 0 min 0 min 5 W/m 16,7 km/h (3 Bft) 97,87 %
05.10.2017 23:16 10,3 C 9,4 C 8,3 C 88 % 0 lf 1015,8 hPa 0,0 l/m 0 min 0 min 5 W/m 14,6 km/h (3 Bft) 95,74 %
05.10.2017 23:18 10,3 C 9,4 C 8,3 C 88 % 0 lf 1015,8 hPa 0,0 l/m 0 min 0 min 5 W/m 12,6 km/h (3 Bft) 89,36 %
05.10.2017 23:20 10,2 C 9,4 C 7,8 C 88 % 0 lf 1015,7 hPa 0,0 l/m 0 min 0 min 5 W/m 10,5 km/h (2 Bft) 96,61 %
05.10.2017 23:22 10,2 C 9,4 C 7,8 C 88 % 0 lf 1015,8 hPa 0,0 l/m 0 min 0 min 5 W/m 14,6 km/h (3 Bft) 94,29 %
05.10.2017 23:24 10,2 C 8,9 C 7,8 C 88 % 0 lf 1015,8 hPa 0,0 l/m 0 min 0 min 5 W/m 12,6 km/h (3 Bft) 95,65 %
05.10.2017 23:26 10,1 C 8,9 C 7,8 C 88 % 0 lf 1015,8 hPa 0,0 l/m 0 min 0 min 0 W/m 10,5 km/h (2 Bft) 95,74 %
05.10.2017 23:28 10,1 C 8,9 C 7,8 C 87 % 0 lf 1015,9 hPa 0,0 l/m 0 min 0 min 5 W/m 14,6 km/h (3 Bft) 93,62 %
05.10.2017 23:30 10,1 C 8,9 C 7,8 C 87 % 0 lf 1015,8 hPa 0,0 l/m 0 min 0 min 5 W/m 10,5 km/h (2 Bft) 93,62 %
05.10.2017 23:32 10,1 C 8,9 C 7,8 C 87 % 0 lf 1015,8 hPa 0,0 l/m 0 min 0 min 5 W/m 10,5 km/h (2 Bft) 95,74 %
05.10.2017 23:34 10,0 C 8,9 C 7,8 C 87 % 0 lf 1015,9 hPa 0,0 l/m 0 min 0 min 5 W/m 16,7 km/h (3 Bft) 95,74 %
05.10.2017 23:36 9,9 C 8,9 C 7,8 C 87 % 0 lf 1015,8 hPa 0,0 l/m 0 min 0 min 5 W/m 14,6 km/h (3 Bft) 95,65 %
05.10.2017 23:38 9,9 C 8,9 C 7,8 C 87 % 0 lf 1015,8 hPa 0,0 l/m 0 min 0 min 5 W/m 16,7 km/h (3 Bft) 95,74 %
05.10.2017 23:40 9,9 C 8,9 C 7,8 C 88 % 0 lf 1015,8 hPa 0,0 l/m 0 min 0 min 5 W/m 14,6 km/h (3 Bft) 93,62 %
05.10.2017 23:42 9,9 C 8,9 C 7,8 C 88 % 0 lf 1015,8 hPa 0,0 l/m 0 min 0 min 5 W/m 18,8 km/h (3 Bft) 95,74 %
05.10.2017 23:44 9,8 C 8,9 C 7,8 C 88 % 0 lf 1015,8 hPa 0,0 l/m 0 min 0 min 0 W/m 12,6 km/h (3 Bft) 97,87 %
05.10.2017 23:46 9,8 C 8,9 C 7,8 C 88 % 0 lf 1015,8 hPa 0,0 l/m 0 min 0 min 0 W/m 12,6 km/h (3 Bft) 95,74 %
05.10.2017 23:48 9,7 C 8,9 C 7,8 C 87 % 0 lf 1015,8 hPa 0,0 l/m 0 min 0 min 0 W/m 23,0 km/h (4 Bft) 95,65 %
05.10.2017 23:50 9,7 C 8,9 C 7,8 C 88 % 0 lf 1015,8 hPa 0,0 l/m 0 min 0 min 0 W/m 18,8 km/h (3 Bft) 98,31 %
05.10.2017 23:52 9,7 C 8,9 C 7,8 C 88 % 0 lf 1015,7 hPa 0,0 l/m 0 min 0 min 0 W/m 18,8 km/h (3 Bft) 97,14 %
05.10.2017 23:54 9,7 C 8,9 C 7,8 C 88 % 0 lf 1015,8 hPa 0,0 l/m 0 min 0 min 0 W/m 20,9 km/h (4 Bft) 97,87 %
05.10.2017 23:56 9,6 C 8,9 C 7,8 C 88 % 0 lf 1015,8 hPa 0,0 l/m 0 min 0 min 1 W/m 12,6 km/h (3 Bft) 95,74 %
05.10.2017 23:58 9,6 C 8,9 C 7,8 C 88 % 0 lf 1015,9 hPa 0,0 l/m 0 min 0 min 0 W/m 20,9 km/h (4 Bft) 95,65 %
_ Min-Zeit 23:56 23:24 23:20 14:18 00:00 11:14 - - - - 20:32 10:20
Minimum _ 9,6 C 8,9 C 7,8 C 73 % 0 lf 1005,7 hPa - - - - 8,4 km/h (2 Bft) 86,96 %
_ Max-Zeit 14:28 14:28 15:00 10:34 00:50 00:00 12:06 11:52 12:10 13:54 12:14 00:00
Maximum _ 16,2 C 23,3 C 16,1 C 97 % 15 lf 1017,1 hPa 0,6 l/m 2 min 4 min 746 W/m 71,1 km/h
NW (8 Bft)
100,00 %
Durchschnitt _ 12,8 C 12,9 C 11,0 C 87 % 6 lf 1011,4 hPa #4,2 l/m #3:30 h #5:10 h 95 W/m 30,0 km/h (5 Bft) 96,44 %
© 2017 W. Hausmann